DB0MGN-WX Weather Reports


time (UTC)temp
F
wind
direction
speed
knots
gust
knots
rain 1hr
in
rain 24hr
in
rain mn
in
humidity
%
barometer
mb
20260507131041 51 228 0.9 0.0 0.00 0.00 0.00 87 1013.8
20260507130941 51 220 1.7 0.0 0.00 0.00 0.00 87 1013.7
20260507130841 51 219 0.9 0.0 0.00 0.00 0.00 87 1013.8
20260507130741 52 212 1.7 0.0 0.00 0.00 0.00 87 1013.9
20260507130641 52 239 1.7 0.0 0.00 0.00 0.00 88 1013.8
20260507130541 51 206 1.7 0.0 0.00 0.00 0.00 87 1013.9
20260507130441 51 224 0.9 0.0 0.00 0.00 0.00 87 1013.8
20260507130341 51 349 0.9 0.0 0.00 0.00 0.00 88 1013.7
20260507130241 51 217 0.9 0.0 0.00 0.00 0.00 88 1013.7
20260507130140 51 261 1.7 0.0 0.00 0.00 0.00 88 1013.8
20260507130040 51 218 0.9 0.0 0.00 0.00 0.00 88 1013.6
20260507125940 51 269 2.6 0.0 0.00 0.00 0.00 89 1013.7
20260507125840 51 299 0.9 0.0 0.00 0.00 0.00 89 1013.6
20260507125740 51 238 0.9 0.0 0.00 0.00 0.00 89 1013.7
20260507125640 51 141 0.9 0.0 0.00 0.00 0.00 89 1013.6
20260507125540 51 288 1.7 0.0 0.00 0.00 0.00 89 1013.6
20260507125440 51 28 1.7 0.0 0.00 0.00 0.00 90 1013.7
20260507125340 51 258 0.9 0.0 0.00 0.00 0.00 90 1013.7
20260507125240 51 154 0.0 0.0 0.00 0.00 0.00 89 1013.6
20260507125140 51 265 1.7 0.0 0.00 0.00 0.00 89 1013.6
20260507125040 51 254 0.9 0.0 0.00 0.00 0.00 89 1013.6
20260507124940 51 0 0.0 0.0 0.00 0.00 0.00 90 1013.7
20260507124840 51 14 0.9 0.0 0.00 0.00 0.00 90 1013.6
20260507124740 51 37 0.9 0.0 0.00 0.00 0.00 89 1013.7
20260507124640 51 201 0.0 0.0 0.00 0.00 0.00 89 1013.6
20260507124540 51 312 0.9 0.0 0.00 0.00 0.00 89 1013.6
20260507124439 51 254 0.9 0.0 0.00 0.00 0.00 89 1013.7
20260507124339 51 218 0.0 0.0 0.00 0.00 0.00 89 1013.5
20260507124239 51 275 0.9 0.0 0.00 0.00 0.00 89 1013.6
20260507124139 51 53 0.9 0.0 0.00 0.00 0.00 89 1013.5
20260507124039 51 46 0.9 0.0 0.00 0.00 0.00 89 1013.6
20260507123939 51 141 0.0 0.0 0.00 0.00 0.00 89 1013.6
20260507123839 51 76 0.9 0.0 0.00 0.00 0.00 89 1013.6
20260507123739 51 41 0.0 0.0 0.00 0.00 0.00 89 1013.5
20260507123639 51 0 0.9 0.0 0.00 0.00 0.00 89 1013.5
20260507123539 51 32 0.0 0.0 0.00 0.00 0.00 89 1013.5
20260507123439 51 6 0.9 0.0 0.00 0.00 0.00 89 1013.4
20260507123339 51 38 0.9 0.0 0.00 0.00 0.00 88 1013.5
20260507123239 51 98 1.7 0.0 0.00 0.00 0.00 88 1013.5
20260507123139 51 132 0.9 0.0 0.00 0.00 0.00 87 1013.5
20260507123039 51 294 0.0 0.0 0.00 0.00 0.00 87 1013.6
20260507122939 51 164 1.7 0.0 0.00 0.00 0.00 86 1013.5
20260507122838 51 140 0.9 0.0 0.00 0.00 0.00 86 1013.5
20260507122738 52 358 1.7 0.0 0.00 0.00 0.00 86 1013.4
20260507122638 52 106 0.0 0.0 0.00 0.00 0.00 86 1013.4
20260507122538 52 189 0.0 0.0 0.00 0.00 0.00 86 1013.3
20260507122438 52 184 1.7 0.0 0.00 0.00 0.00 86 1013.3
20260507122338 52 54 0.9 0.0 0.00 0.00 0.00 86 1013.5
20260507122238 52 42 0.9 0.0 0.00 0.00 0.00 86 1013.3
20260507122138 52 211 0.0 0.0 0.00 0.00 0.00 87 1013.3
20260507122038 52 188 0.9 0.0 0.00 0.00 0.00 87 1013.5
20260507121938 52 38 0.0 0.0 0.00 0.00 0.00 87 1013.4
20260507121838 51 35 0.0 0.0 0.00 0.00 0.00 87 1013.4
20260507121738 51 62 0.9 0.0 0.00 0.00 0.00 87 1013.4
20260507121638 51 185 0.0 0.0 0.00 0.00 0.00 87 1013.4
20260507121538 51 50 0.9 0.0 0.00 0.00 0.00 87 1013.3
20260507121438 51 122 0.0 0.0 0.00 0.00 0.00 87 1013.4
20260507121338 51 27 0.0 0.0 0.00 0.00 0.00 87 1013.3
20260507121238 51 124 0.0 0.0 0.00 0.00 0.00 87 1013.3
20260507121137 51 42 0.9 0.0 0.00 0.00 0.00 87 1013.4
20260507121037 51 224 0.0 0.0 0.00 0.00 0.00 88 1013.4
20260507120937 51 222 1.7 0.0 0.00 0.00 0.00 89 1013.3
20260507120837 51 180 0.0 0.0 0.00 0.00 0.00 88 1013.2
20260507120737 51 293 0.9 0.0 0.00 0.00 0.00 89 1013.3
20260507120637 51 299 0.0 0.0 0.00 0.00 0.00 89 1013.2
20260507120537 51 335 0.9 0.0 0.00 0.00 0.00 89 1013.3
20260507120437 51 184 0.0 0.0 0.00 0.00 0.00 89 1013.3
20260507120337 51 323 0.9 0.0 0.00 0.00 0.00 89 1013.3
20260507120237 51 322 0.0 0.0 0.00 0.00 0.00 89 1013.3
20260507120137 51 322 0.0 0.0 0.00 0.00 0.00 90 1013.4
20260507120037 51 44 0.9 0.0 0.00 0.00 0.00 91 1013.3
20260507115937 51 135 0.9 0.0 0.00 0.00 0.00 91 1013.2
20260507115837 51 11 0.9 0.0 0.00 0.00 0.00 91 1013.4
20260507115737 51 63 0.0 0.0 0.00 0.00 0.00 91 1013.3
20260507115637 50 24 0.0 0.0 0.00 0.00 0.00 91 1013.3
20260507115536 50 25 0.0 0.0 0.00 0.00 0.00 91 1013.2
20260507115436 50 112 0.9 0.0 0.00 0.00 0.00 91 1013.3
20260507115336 50 246 0.9 0.0 0.00 0.00 0.00 91 1013.3
20260507115236 50 70 0.9 0.0 0.00 0.00 0.00 91 1013.2
20260507115136 50 103 0.9 0.0 0.00 0.00 0.00 90 1013.3
20260507115036 50 235 0.9 0.0 0.00 0.00 0.00 90 1013.2
20260507114936 50 129 0.0 0.0 0.00 0.00 0.00 90 1013.2
20260507114836 50 283 0.9 0.0 0.00 0.00 0.00 90 1013.3
20260507114736 50 6 0.0 0.0 0.00 0.00 0.00 90 1013.3
20260507114636 50 338 0.9 0.0 0.00 0.00 0.00 90 1013.3
20260507114536 50 334 1.7 0.0 0.00 0.00 0.00 91 1013.2
20260507114436 50 53 0.0 0.0 0.00 0.00 0.00 90 1013.3
20260507114336 50 235 0.0 0.0 0.00 0.00 0.00 90 1013.2
20260507114236 50 162 0.0 0.0 0.00 0.00 0.00 90 1013.2
20260507114136 50 315 0.0 0.0 0.00 0.00 0.00 90 1013.3
20260507114036 50 135 0.0 0.0 0.00 0.00 0.00 91 1013.3
20260507113936 50 101 0.9 0.0 0.00 0.00 0.00 90 1013.2
20260507113835 50 219 0.9 0.0 0.00 0.00 0.00 90 1013.1
20260507113735 50 48 0.9 0.0 0.00 0.00 0.00 90 1013.2
20260507113635 50 130 0.9 0.0 0.00 0.00 0.00 89 1013.1
20260507113536 50 22 0.9 0.0 0.00 0.00 0.00 89 1013.2
20260507113435 50 254 2.6 0.0 0.00 0.00 0.00 88 1013.2
20260507113335 50 263 0.9 0.0 0.00 0.00 0.00 88 1013.2
20260507113235 50 222 1.7 0.0 0.00 0.00 0.00 88 1013.2
20260507113135 50 222 0.9 0.0 0.00 0.00 0.00 88 1013.2
20260507113035 50 243 0.9 0.0 0.00 0.00 0.00 88 1013.2
20260507112935 50 265 1.7 0.0 0.00 0.00 0.00 88 1013.2
20260507112835 50 217 0.9 0.0 0.00 0.00 0.00 88 1013.2
20260507112735 50 221 0.9 0.0 0.00 0.00 0.00 89 1013.2
20260507112635 50 304 0.9 0.0 0.00 0.00 0.00 89 1013.2
20260507112535 50 315 1.7 0.0 0.00 0.00 0.00 89 1013.2
20260507112435 50 229 1.7 0.0 0.00 0.00 0.00 89 1013.2
20260507112335 50 218 0.0 0.0 0.00 0.00 0.00 89 1013.2
20260507112234 50 243 0.0 0.0 0.00 0.00 0.00 89 1013.2
20260507112134 50 191 0.0 0.0 0.00 0.00 0.00 89 1013.2
20260507112034 50 117 0.0 0.0 0.00 0.00 0.00 89 1013.2
20260507111934 50 57 0.9 0.0 0.00 0.00 0.00 89 1013.1
20260507111835 50 131 0.9 0.0 0.00 0.00 0.00 89 1013.1
20260507111735 50 208 0.9 0.0 0.00 0.00 0.00 89 1013.1
20260507111634 50 154 0.0 0.0 0.00 0.00 0.00 88 1013.1
20260507111534 50 89 0.0 0.0 0.00 0.00 0.00 89 1013.0
20260507111434 50 50 0.0 0.0 0.00 0.00 0.00 89 1013.1
20260507111334 50 302 0.9 0.0 0.00 0.00 0.00 89 1013.1
20260507111234 50 212 0.9 0.0 0.00 0.00 0.00 89 1013.1
20260507111134 50 229 1.7 0.0 0.00 0.00 0.00 89 1013.0
20260507111034 50 117 0.0 0.0 0.00 0.00 0.00 89 1013.1
20260507110934 50 113 0.0 0.0 0.00 0.00 0.00 89 1013.0
20260507110834 50 67 0.0 0.0 0.00 0.00 0.00 89 1013.1
20260507110734 50 100 0.9 0.0 0.00 0.00 0.00 89 1013.2
20260507110634 50 304 0.0 0.0 0.00 0.00 0.00 89 1013.1
20260507110533 50 66 0.0 0.0 0.00 0.00 0.00 89 1013.1
20260507110433 50 322 0.0 0.0 0.00 0.00 0.00 89 1013.1
20260507110333 50 322 0.0 0.0 0.00 0.00 0.00 90 1013.1
20260507110233 50 17 0.9 0.0 0.00 0.00 0.00 90 1013.1
20260507110133 50 80 0.9 0.0 0.00 0.00 0.00 89 1013.1
20260507110033 50 54 0.9 0.0 0.00 0.00 0.00 89 1013.0
20260507105933 50 186 0.9 0.0 0.00 0.00 0.00 89 1013.0
20260507105833 50 292 0.9 0.0 0.00 0.00 0.00 89 1013.1
20260507105733 50 218 0.9 0.0 0.00 0.00 0.00 89 1013.0
20260507105633 50 242 0.0 0.0 0.00 0.00 0.00 89 1013.0
20260507105533 50 242 0.0 0.0 0.00 0.00 0.00 88 1013.0
20260507105433 50 242 0.0 0.0 0.00 0.00 0.00 88 1013.0
20260507105333 50 31 0.0 0.0 0.00 0.00 0.00 88 1013.1
20260507105233 50 151 0.0 0.0 0.00 0.00 0.00 89 1013.1
20260507105133 50 69 0.0 0.0 0.00 0.00 0.00 89 1013.0
20260507105033 50 79 0.9 0.0 0.00 0.00 0.00 89 1013.1
20260507104933 50 11 0.0 0.0 0.00 0.00 0.00 89 1013.0
20260507104832 50 295 0.9 0.0 0.00 0.00 0.00 89 1013.1
20260507104732 50 13 0.9 0.0 0.00 0.00 0.00 89 1013.0
20260507104632 50 322 0.0 0.0 0.00 0.00 0.00 89 1013.0
20260507104532 50 260 0.0 0.0 0.00 0.00 0.00 89 1013.0
20260507104432 50 230 0.0 0.0 0.00 0.00 0.00 89 1012.9
20260507104332 50 278 0.0 0.0 0.00 0.00 0.00 90 1013.0
20260507104232 50 290 0.0 0.0 0.00 0.00 0.00 90 1012.9
20260507104132 50 304 0.0 0.0 0.00 0.00 0.00 89 1013.0
20260507104032 50 200 0.9 0.0 0.00 0.00 0.00 89 1012.9
20260507103932 50 77 0.0 2.6 0.00 0.00 0.00 89 1013.0
20260507103832 50 143 0.9 0.0 0.00 0.00 0.00 89 1012.9
20260507103732 50 150 0.0 0.0 0.00 0.00 0.00 89 1012.9
20260507103632 50 45 0.9 0.0 0.00 0.00 0.00 89 1013.0
20260507103532 50 81 0.9 0.0 0.00 0.00 0.00 89 1012.9
20260507103432 50 107 0.9 0.0 0.00 0.00 0.00 89 1012.9
20260507103332 50 217 0.0 0.0 0.00 0.00 0.00 89 1013.0
20260507103232 50 35 1.7 0.0 0.00 0.00 0.00 89 1012.9
20260507103131 50 89 0.9 0.0 0.00 0.00 0.00 89 1012.9
20260507103031 50 0 0.9 0.0 0.00 0.00 0.00 89 1012.9
20260507102931 50 12 0.9 0.0 0.00 0.00 0.00 88 1012.9
20260507102831 50 355 0.0 0.0 0.00 0.00 0.00 89 1012.9
20260507102731 50 6 0.9 0.0 0.00 0.00 0.00 89 1012.9
20260507102631 50 245 0.9 0.0 0.00 0.00 0.00 89 1012.9
20260507102531 50 129 0.0 0.0 0.00 0.00 0.00 89 1012.9
20260507102431 50 80 0.0 0.0 0.00 0.00 0.00 90 1012.9
20260507102331 50 326 0.0 0.0 0.00 0.00 0.00 90 1012.9
20260507102231 50 142 0.0 0.0 0.00 0.00 0.00 89 1012.9
20260507102131 50 89 0.0 0.0 0.00 0.00 0.00 89 1013.0
20260507102031 50 171 0.9 0.0 0.00 0.00 0.00 89 1012.9
20260507101931 50 275 0.9 0.0 0.00 0.00 0.00 89 1012.8
20260507101831 50 72 0.9 0.0 0.00 0.00 0.00 89 1012.9
20260507101731 50 34 0.9 0.0 0.00 0.00 0.00 89 1012.8
20260507101631 50 330 1.7 0.0 0.00 0.00 0.00 89 1012.9
20260507101530 50 34 0.9 0.0 0.00 0.00 0.00 89 1012.8
20260507101430 50 120 0.9 0.0 0.00 0.00 0.00 89 1012.8
20260507101330 50 36 0.0 0.0 0.00 0.00 0.00 89 1012.8
20260507101230 50 142 0.0 0.0 0.00 0.00 0.00 89 1012.7
20260507101130 50 129 0.0 0.0 0.00 0.00 0.00 88 1012.7
20260507101030 50 162 0.0 0.0 0.00 0.00 0.00 89 1012.8
20260507100930 50 99 0.9 0.0 0.00 0.00 0.00 89 1012.8
20260507100830 50 61 0.9 0.0 0.00 0.00 0.00 90 1012.7
20260507100730 50 95 0.9 0.0 0.00 0.00 0.00 89 1012.7
20260507100630 50 67 0.9 0.0 0.00 0.00 0.00 89 1012.7
20260507100530 50 63 0.9 0.0 0.00 0.00 0.00 88 1012.7
20260507100430 50 150 0.9 0.0 0.00 0.00 0.00 88 1012.7
20260507100330 50 16 0.9 0.0 0.00 0.00 0.00 89 1012.7
20260507100230 50 343 0.9 0.0 0.00 0.00 0.00 89 1012.7
20260507100130 50 42 1.7 0.0 0.00 0.00 0.00 89 1012.6
20260507100030 50 309 0.9 0.0 0.00 0.00 0.00 88 1012.6
20260507095929 50 4 0.9 0.0 0.00 0.00 0.00 89 1012.6
20260507095829 50 207 0.9 0.0 0.00 0.00 0.00 88 1012.6
20260507095729 50 230 0.9 0.0 0.00 0.00 0.00 88 1012.5
20260507095629 50 50 1.7 0.0 0.00 0.00 0.00 89 1012.5
20260507095529 50 349 2.6 0.0 0.00 0.00 0.00 89 1012.5
20260507095429 50 40 0.0 0.0 0.00 0.00 0.00 88 1012.5
20260507095329 50 44 1.7 0.0 0.00 0.00 0.00 87 1012.5
20260507095229 50 297 0.0 0.0 0.00 0.00 0.00 87 1012.5
20260507095129 50 240 0.9 0.0 0.00 0.00 0.00 87 1012.4
20260507095029 50 175 0.9 0.0 0.00 0.00 0.00 88 1012.4
20260507094929 50 250 0.9 0.0 0.00 0.00 0.00 88 1012.4
20260507094829 50 127 0.9 0.0 0.00 0.00 0.00 88 1012.4
20260507094729 50 259 0.0 0.0 0.00 0.00 0.00 88 1012.4
20260507094629 50 89 0.0 0.0 0.00 0.00 0.00 88 1012.4
20260507094529 50 302 0.0 0.0 0.00 0.00 0.00 88 1012.4
20260507094429 50 62 0.0 0.0 0.00 0.00 0.00 88 1012.3
20260507094329 50 107 0.0 0.0 0.00 0.00 0.00 88 1012.3
20260507094229 50 212 1.7 0.0 0.00 0.00 0.00 88 1012.3
20260507094128 50 205 1.7 0.0 0.00 0.00 0.00 88 1012.4
20260507094028 50 341 0.9 0.0 0.00 0.00 0.00 89 1012.4
20260507093928 50 180 0.9 0.0 0.00 0.00 0.00 89 1012.3
20260507093828 50 159 0.9 0.0 0.00 0.00 0.00 89 1012.3
20260507093728 50 107 0.9 0.0 0.00 0.00 0.00 89 1012.3
20260507093628 50 346 0.9 0.0 0.00 0.00 0.00 89 1012.3
20260507093528 50 29 0.9 0.0 0.00 0.00 0.00 89 1012.2
20260507093428 50 89 0.0 0.0 0.00 0.00 0.00 89 1012.3
20260507093328 50 89 0.9 0.0 0.00 0.00 0.00 89 1012.3
20260507093228 50 47 0.9 0.0 0.00 0.00 0.00 89 1012.2
20260507093128 50 25 1.7 0.0 0.00 0.00 0.00 90 1012.3
20260507093028 49 105 0.0 0.0 0.00 0.00 0.00 90 1012.3
20260507092928 49 96 0.9 0.0 0.00 0.00 0.00 90 1012.2
20260507092828 49 150 0.0 0.0 0.00 0.00 0.00 90 1012.3
20260507092727 49 143 0.9 0.0 0.00 0.00 0.00 90 1012.3
20260507092628 49 104 0.9 0.0 0.00 0.00 0.00 89 1012.3
20260507092527 49 8 0.9 0.0 0.00 0.00 0.00 89 1012.3
20260507092427 49 251 2.6 0.0 0.00 0.00 0.00 90 1012.2
20260507092327 49 26 1.7 0.0 0.00 0.00 0.00 90 1012.3
20260507092227 49 329 1.7 0.0 0.00 0.00 0.00 90 1012.2
20260507092127 49 358 2.6 0.0 0.00 0.00 0.00 90 1012.3
20260507092027 49 33 2.6 0.0 0.00 0.00 0.00 90 1012.3
20260507091927 49 62 1.7 0.0 0.00 0.00 0.00 90 1012.2
20260507091827 49 228 1.7 0.0 0.00 0.00 0.00 90 1012.2
20260507091727 49 177 1.7 0.0 0.00 0.00 0.00 90 1012.2
20260507091627 49 119 1.7 0.0 0.00 0.00 0.00 89 1012.1
20260507091527 49 89 0.9 0.0 0.00 0.00 0.00 89 1012.1
20260507091427 50 235 3.5 0.0 0.00 0.00 0.00 89 1012.2
20260507091327 50 119 3.5 0.0 0.00 0.00 0.00 90 1012.2
20260507091227 50 233 1.7 0.0 0.00 0.00 0.00 90 1012.1
20260507091127 50 75 1.7 0.0 0.00 0.00 0.00 90 1012.2
20260507091026 50 180 2.6 0.0 0.00 0.00 0.00 90 1012.2
20260507090927 50 25 2.6 0.0 0.00 0.00 0.00 90 1012.1
20260507090826 50 198 2.6 0.0 0.00 0.00 0.00 91 1012.1
20260507090726 50 289 1.7 0.0 0.00 0.00 0.00 91 1012.0
20260507090626 50 113 2.6 0.0 0.00 0.00 0.00 91 1012.0
20260507090526 50 198 3.5 0.0 0.00 0.00 0.00 91 1012.1
20260507090426 50 166 1.7 0.0 0.00 0.00 0.00 91 1012.0
20260507090326 50 147 1.7 0.0 0.00 0.00 0.00 92 1012.1
20260507090226 50 253 1.7 0.0 0.00 0.00 0.00 92 1012.0
20260507090126 50 75 0.9 0.0 0.00 0.00 0.00 92 1012.0
20260507090026 49 237 0.9 0.0 0.00 0.00 0.00 92 1012.0
20260507085926 49 77 0.9 0.0 0.00 0.00 0.00 92 1012.0
20260507085826 49 254 0.9 0.0 0.00 0.00 0.00 92 1011.9
20260507085726 49 192 2.6 0.0 0.00 0.00 0.00 92 1012.0
20260507085626 49 201 1.7 0.0 0.00 0.00 0.00 91 1012.0
20260507085526 49 108 1.7 0.0 0.00 0.00 0.00 91 1012.0
20260507085426 49 248 2.6 0.0 0.00 0.00 0.00 91 1011.8
20260507085325 49 214 3.5 0.0 0.00 0.00 0.00 91 1012.0
20260507085225 49 222 3.5 0.0 0.00 0.00 0.00 92 1011.9
20260507085125 49 203 1.7 0.0 0.00 0.00 0.00 92 1011.9
20260507085025 49 141 1.7 0.0 0.00 0.00 0.00 92 1011.9
20260507084925 49 140 0.9 0.0 0.00 0.00 0.00 91 1011.8
20260507084825 49 162 2.6 0.0 0.00 0.00 0.00 91 1011.9
20260507084725 49 246 3.5 0.0 0.00 0.00 0.00 92 1011.8
20260507084625 49 225 3.5 0.0 0.00 0.00 0.00 92 1011.8
20260507084525 49 170 1.7 0.0 0.00 0.00 0.00 92 1011.9
20260507084425 49 41 4.3 0.0 0.00 0.00 0.00 92 1011.8
20260507084325 49 50 1.7 0.0 0.00 0.00 0.00 93 1011.7
20260507084225 49 18 3.5 0.0 0.00 0.00 0.00 93 1011.8
20260507084125 49 347 1.7 0.0 0.00 0.00 0.00 93 1011.7
20260507084025 49 170 3.5 0.0 0.00 0.00 0.00 93 1011.7
20260507083925 49 49 2.6 0.0 0.00 0.00 0.00 93 1011.8
20260507083825 49 333 1.7 0.0 0.00 0.00 0.00 93 1011.8
20260507083725 49 57 2.6 0.0 0.00 0.00 0.00 93 1011.7
20260507083624 49 0 1.7 0.0 0.00 0.00 0.00 93 1011.7
20260507083524 49 60 3.5 0.0 0.00 0.00 0.00 93 1011.7
20260507083424 49 1 0.9 0.0 0.00 0.00 0.00 93 1011.7
20260507083324 49 108 1.7 0.0 0.00 0.00 0.00 93 1011.8
20260507083224 49 221 1.7 0.0 0.00 0.00 0.00 93 1011.8
20260507083124 49 30 1.7 0.0 0.00 0.00 0.00 93 1011.5
20260507083024 49 199 3.5 0.0 0.00 0.00 0.00 93 1011.7
20260507082924 49 231 2.6 0.0 0.00 0.00 0.00 93 1011.5
20260507082824 49 117 3.5 0.0 0.00 0.00 0.00 93 1011.5
20260507082724 49 154 2.6 0.0 0.00 0.00 0.00 93 1011.7
20260507082624 49 83 1.7 0.0 0.00 0.00 0.00 93 1011.7
20260507082524 49 154 2.6 0.0 0.00 0.00 0.00 93 1011.4
20260507082424 49 168 3.5 0.0 0.00 0.00 0.00 93 1011.5
20260507082324 49 196 2.6 0.0 0.00 0.00 0.00 93 1011.5
20260507082224 49 202 1.7 0.0 0.00 0.00 0.00 93 1011.4
20260507082124 49 31 2.6 0.0 0.00 0.00 0.00 93 1011.4
20260507082023 49 151 1.7 0.0 0.00 0.00 0.00 93 1011.4
20260507081923 49 213 1.7 0.0 0.00 0.00 0.00 94 1011.5
20260507081823 49 248 1.7 0.0 0.00 0.00 0.00 94 1011.5
20260507081723 49 230 2.6 0.0 0.00 0.00 0.00 94 1011.4
20260507081623 49 134 2.6 0.0 0.00 0.00 0.00 94 1011.5
20260507081523 49 181 2.6 0.0 0.00 0.00 0.00 94 1011.4
20260507081423 49 200 2.6 0.0 0.00 0.00 0.00 94 1011.4
20260507081323 49 156 1.7 0.0 0.00 0.00 0.00 94 1011.4
20260507081223 49 123 1.7 0.0 0.00 0.00 0.00 94 1011.4
20260507081123 49 131 1.7 0.0 0.00 0.00 0.00 94 1011.4
20260507081023 49 276 0.9 0.0 0.00 0.00 0.00 95 1011.4
20260507080923 49 42 1.7 0.0 0.00 0.00 0.00 95 1011.4
20260507080823 49 185 0.9 0.0 0.00 0.00 0.00 95 1011.4
20260507080723 49 206 1.7 0.0 0.00 0.00 0.00 95 1011.3
20260507080623 49 110 1.7 0.0 0.00 0.00 0.00 95 1011.3
20260507080523 49 156 1.7 0.0 0.00 0.00 0.00 95 1011.3
20260507080423 49 3 3.5 0.0 0.00 0.00 0.00 95 1011.2
20260507080322 49 87 2.6 0.0 0.00 0.00 0.00 95 1011.2
20260507080222 49 74 1.7 0.0 0.00 0.00 0.00 95 1011.2
20260507080122 49 101 2.6 0.0 0.00 0.00 0.00 95 1011.2
20260507080022 49 201 1.7 0.0 0.00 0.00 0.00 95 1011.2
20260507075922 49 137 1.7 0.0 0.00 0.00 0.00 95 1011.2
20260507075822 49 145 1.7 0.0 0.00 0.00 0.00 95 1011.2
20260507075722 49 330 1.7 0.0 0.00 0.00 0.00 95 1011.2
20260507075622 49 286 0.9 0.0 0.00 0.00 0.00 95 1011.2
20260507075522 48 208 1.7 0.0 0.00 0.00 0.00 95 1011.2
20260507075422 48 153 1.7 0.0 0.00 0.00 0.00 95 1011.2
20260507075322 48 86 1.7 0.0 0.00 0.00 0.00 95 1011.2
20260507075222 48 141 1.7 0.0 0.00 0.00 0.00 95 1011.2
20260507075122 48 72 0.9 0.0 0.00 0.00 0.00 95 1011.1
20260507075022 48 207 1.7 0.0 0.00 0.00 0.00 95 1011.2
20260507074922 48 312 1.7 0.0 0.00 0.00 0.00 95 1011.3
20260507074822 48 44 0.9 0.0 0.00 0.00 0.00 95 1011.2
20260507074722 48 70 1.7 0.0 0.00 0.00 0.00 95 1011.1
20260507074621 48 239 1.7 0.0 0.00 0.00 0.00 95 1011.2
20260507074521 48 96 0.9 0.0 0.00 0.00 0.00 95 1011.1
20260507074421 48 175 1.7 0.0 0.00 0.00 0.00 95 1011.2
20260507074321 48 61 1.7 0.0 0.00 0.00 0.00 95 1011.2
20260507074221 48 169 1.7 0.0 0.00 0.00 0.00 95 1011.1
20260507074121 48 232 3.5 0.0 0.00 0.00 0.00 95 1011.1
20260507074021 48 137 1.7 0.0 0.00 0.00 0.00 95 1011.1
20260507073921 48 160 0.9 0.0 0.00 0.00 0.00 95 1011.0
20260507073821 48 171 1.7 2.6 0.00 0.00 0.00 95 1011.0
20260507073721 48 334 1.7 0.0 0.00 0.00 0.00 95 1011.0
20260507073621 48 206 2.6 0.0 0.00 0.00 0.00 95 1011.0
20260507073521 48 256 1.7 0.0 0.00 0.00 0.00 95 1011.0
20260507073421 48 131 1.7 0.0 0.00 0.00 0.00 95 1011.1
20260507073321 48 85 1.7 0.0 0.00 0.00 0.00 95 1011.0
20260507073221 48 219 1.7 0.0 0.00 0.00 0.00 95 1011.0
20260507073121 48 20 1.7 0.0 0.00 0.00 0.00 95 1011.0
20260507073020 48 35 1.7 0.0 0.00 0.00 0.00 95 1011.1
20260507072920 48 159 1.7 0.0 0.00 0.00 0.00 95 1011.0
20260507072820 48 289 2.6 0.0 0.00 0.00 0.00 95 1010.9
20260507072720 48 107 1.7 0.0 0.00 0.00 0.00 96 1011.0
20260507072620 48 107 2.6 0.0 0.00 0.00 0.00 96 1011.0
20260507072520 48 104 1.7 0.0 0.00 0.00 0.00 96 1011.0
20260507072420 48 153 1.7 0.0 0.00 0.00 0.00 96 1011.0
20260507072320 48 2 1.7 0.0 0.00 0.00 0.00 96 1011.0
20260507072220 48 136 2.6 0.0 0.00 0.00 0.00 96 1011.0
20260507072120 48 63 1.7 0.0 0.00 0.00 0.00 96 1011.0
20260507072020 48 310 1.7 0.0 0.00 0.00 0.00 96 1010.9
20260507071920 48 31 3.5 0.0 0.00 0.00 0.00 96 1010.9
20260507071820 48 302 2.6 0.0 0.00 0.00 0.00 96 1010.9
20260507071720 48 116 2.6 0.0 0.00 0.00 0.00 96 1010.9
20260507071620 48 17 2.6 0.0 0.00 0.00 0.00 96 1011.0
20260507071519 48 92 2.6 0.0 0.00 0.00 0.00 96 1010.9
20260507071419 48 108 1.7 0.0 0.00 0.00 0.00 96 1010.9
20260507071319 48 110 1.7 0.0 0.00 0.00 0.00 96 1010.8
20260507071219 48 358 2.6 0.0 0.00 0.00 0.00 96 1010.9
20260507071119 48 348 1.7 0.0 0.00 0.00 0.00 96 1010.8
20260507071019 48 55 1.7 0.0 0.00 0.00 0.00 96 1010.8
20260507070919 48 0 1.7 0.0 0.00 0.00 0.00 96 1010.8
20260507070819 48 283 1.7 0.0 0.00 0.00 0.00 96 1010.8
20260507070719 48 24 2.6 0.0 0.00 0.00 0.00 96 1010.8
20260507070619 48 12 3.5 0.0 0.00 0.00 0.00 96 1010.8
20260507070519 48 302 2.6 0.0 0.00 0.00 0.00 96 1010.8
20260507070419 48 354 1.7 0.0 0.00 0.00 0.00 96 1010.8
20260507070319 48 341 1.7 0.0 0.00 0.00 0.00 96 1010.9
20260507070219 48 30 2.6 0.0 0.00 0.00 0.00 96 1010.9
20260507070119 48 119 1.7 0.0 0.00 0.00 0.00 96 1010.8
20260507070019 48 92 1.7 0.0 0.00 0.00 0.00 96 1010.8
20260507065919 48 73 1.7 0.0 0.00 0.00 0.00 96 1010.9
20260507065818 48 4 2.6 0.0 0.00 0.00 0.00 96 1010.9
20260507065718 48 77 1.7 0.0 0.00 0.00 0.00 96 1010.7
20260507065618 48 231 1.7 0.0 0.00 0.00 0.00 96 1010.8
20260507065518 48 301 1.7 0.0 0.00 0.00 0.00 96 1010.7
20260507065418 48 70 1.7 0.0 0.00 0.00 0.00 96 1010.8
20260507065318 48 113 2.6 0.0 0.00 0.00 0.00 96 1010.7
20260507065218 48 246 1.7 0.0 0.00 0.00 0.00 96 1010.8
20260507065118 48 141 1.7 0.0 0.00 0.00 0.00 96 1010.8
20260507065018 48 111 1.7 0.0 0.00 0.00 0.00 96 1010.8
20260507064918 48 251 5.2 0.0 0.00 0.00 0.00 96 1010.6
20260507064818 48 243 3.5 0.0 0.00 0.00 0.00 96 1010.7
20260507064718 48 249 3.5 0.0 0.00 0.00 0.00 96 1010.6
20260507064618 48 259 2.6 0.0 0.00 0.00 0.00 96 1010.6
20260507064518 48 142 2.6 0.0 0.00 0.00 0.00 96 1010.7
20260507064418 48 255 2.6 0.0 0.00 0.00 0.00 96 1010.7
20260507064318 48 137 1.7 0.0 0.00 0.00 0.00 96 1010.6
20260507064218 48 49 1.7 0.0 0.00 0.00 0.00 96 1010.6
20260507064118 48 66 1.7 0.0 0.00 0.00 0.00 96 1010.6
20260507064017 48 194 0.9 0.0 0.00 0.00 0.00 96 1010.6
20260507063917 48 148 1.7 0.0 0.00 0.00 0.00 96 1010.6
20260507063817 48 128 1.7 0.0 0.00 0.00 0.00 96 1010.6
20260507063717 48 269 1.7 0.0 0.00 0.00 0.00 96 1010.6
20260507063617 48 142 0.9 0.0 0.00 0.00 0.00 96 1010.5
20260507063517 48 100 1.7 0.0 0.00 0.00 0.00 96 1010.5
20260507063417 48 116 0.9 0.0 0.00 0.00 0.00 96 1010.5
20260507063317 48 112 1.7 0.0 0.00 0.00 0.00 96 1010.4
20260507063217 48 335 1.7 0.0 0.00 0.00 0.00 96 1010.5
20260507063117 48 207 2.6 0.0 0.00 0.00 0.00 96 1010.4
20260507063017 48 215 1.7 0.0 0.00 0.00 0.00 96 1010.4
20260507062917 48 288 1.7 0.0 0.00 0.00 0.00 96 1010.4
20260507062817 48 32 1.7 0.0 0.00 0.00 0.00 96 1010.4
20260507062717 48 217 2.6 0.0 0.00 0.00 0.00 96 1010.4
20260507062617 48 122 2.6 0.0 0.00 0.00 0.00 96 1010.4
20260507062517 48 190 1.7 0.0 0.00 0.00 0.00 96 1010.4
20260507062416 48 72 2.6 0.0 0.00 0.00 0.00 96 1010.4
20260507062316 48 137 0.9 0.0 0.00 0.00 0.00 96 1010.5
20260507062216 48 233 1.7 0.0 0.00 0.00 0.00 96 1010.5
20260507062116 48 250 1.7 0.0 0.00 0.00 0.00 96 1010.4
20260507062016 48 131 1.7 0.0 0.00 0.00 0.00 96 1010.5
20260507061916 48 199 1.7 0.0 0.00 0.00 0.00 96 1010.4
20260507061816 48 163 1.7 0.0 0.00 0.00 0.00 96 1010.4
20260507061716 48 122 0.9 0.0 0.00 0.00 0.00 96 1010.4
20260507061616 48 284 1.7 0.0 0.00 0.00 0.00 96 1010.3
20260507061516 48 57 0.9 0.0 0.00 0.00 0.00 96 1010.3
20260507061416 48 203 1.7 0.0 0.00 0.00 0.00 97 1010.4
20260507061316 48 186 1.7 0.0 0.00 0.00 0.00 96 1010.3
20260507061216 48 72 0.9 0.0 0.00 0.00 0.00 97 1010.4
20260507061116 48 207 1.7 0.0 0.00 0.00 0.00 97 1010.3
20260507061016 48 336 1.7 0.0 0.00 0.00 0.00 97 1010.3
20260507060915 48 295 1.7 0.0 0.00 0.00 0.00 97 1010.3
20260507060815 48 259 2.6 0.0 0.00 0.00 0.00 97 1010.3
20260507060715 48 248 0.9 0.0 0.00 0.00 0.00 97 1010.4
20260507060615 48 211 1.7 0.0 0.00 0.00 0.00 97 1010.2
20260507060515 48 233 1.7 0.0 0.00 0.00 0.00 97 1010.2
20260507060415 48 274 0.9 0.0 0.00 0.00 0.00 97 1010.3
20260507060315 48 62 1.7 0.0 0.00 0.00 0.00 97 1010.2
20260507060215 48 310 1.7 0.0 0.00 0.00 0.00 97 1010.2
20260507060115 48 154 0.9 0.0 0.00 0.00 0.00 97 1010.2
20260507060015 48 98 1.7 0.0 0.00 0.00 0.00 97 1010.2
20260507055915 48 262 1.7 0.0 0.00 0.00 0.00 97 1010.2
20260507055815 48 190 0.9 0.0 0.00 0.00 0.00 96 1010.2
20260507055715 48 129 1.7 0.0 0.00 0.00 0.00 96 1010.1
20260507055615 48 170 1.7 0.0 0.00 0.00 0.00 96 1010.2
20260507055515 48 111 0.9 0.0 0.00 0.00 0.00 96 1010.0
20260507055415 48 119 1.7 0.0 0.00 0.00 0.00 97 1010.2
20260507055314 48 76 1.7 0.0 0.00 0.00 0.00 96 1010.2
20260507055215 48 103 0.9 0.0 0.00 0.00 0.00 96 1010.2
20260507055114 48 154 1.7 0.0 0.00 0.00 0.00 96 1010.2
20260507055014 48 106 1.7 0.0 0.00 0.00 0.00 97 1010.1
20260507054914 48 293 1.7 0.0 0.00 0.00 0.00 96 1010.1
20260507054814 48 157 2.6 0.0 0.00 0.00 0.00 96 1010.1
20260507054714 48 41 1.7 0.0 0.00 0.00 0.00 96 1010.0
20260507054614 48 188 3.5 0.0 0.00 0.00 0.00 96 1010.1
20260507054514 48 197 1.7 0.0 0.00 0.00 0.00 96 1010.1
20260507054414 48 146 1.7 0.0 0.00 0.00 0.00 96 1010.0
20260507054314 48 80 2.6 0.0 0.00 0.00 0.00 96 1009.9
20260507054214 48 235 2.6 0.0 0.00 0.00 0.00 96 1010.0
20260507054114 48 351 3.5 0.0 0.00 0.00 0.00 96 1010.0
20260507054014 48 338 2.6 0.0 0.00 0.00 0.00 96 1010.0
20260507053914 48 25 3.5 0.0 0.00 0.00 0.00 96 1009.9
20260507053814 48 14 2.6 0.0 0.00 0.00 0.00 96 1009.9
20260507053714 48 34 3.5 0.0 0.00 0.00 0.00 96 1010.0
20260507053613 48 30 0.9 0.0 0.00 0.00 0.00 96 1009.9
20260507053513 48 16 2.6 0.0 0.00 0.00 0.00 96 1010.0
20260507053413 48 31 3.5 0.0 0.00 0.00 0.00 96 1009.9
20260507053313 48 49 2.6 0.0 0.00 0.00 0.00 96 1009.9
20260507053213 48 95 2.6 0.0 0.00 0.00 0.00 96 1009.9
20260507053113 48 318 2.6 0.0 0.00 0.00 0.00 96 1009.9
20260507053013 48 254 0.9 0.0 0.00 0.00 0.00 96 1009.8
20260507052913 48 231 3.5 0.0 0.00 0.00 0.00 96 1009.8
20260507052813 48 124 1.7 0.0 0.00 0.00 0.00 96 1009.8
20260507052713 48 120 1.7 0.0 0.00 0.00 0.00 96 1009.8
20260507052613 48 172 2.6 0.0 0.00 0.00 0.00 96 1009.7
20260507052513 48 70 2.6 0.0 0.00 0.00 0.00 96 1009.7
20260507052413 48 93 1.7 0.0 0.00 0.00 0.00 96 1009.7
20260507052313 48 133 0.9 0.0 0.00 0.00 0.00 96 1009.7
20260507052213 48 95 1.7 0.0 0.00 0.00 0.00 96 1009.7
20260507052113 48 134 2.6 0.0 0.00 0.00 0.00 96 1009.7
20260507052012 48 44 0.9 0.0 0.00 0.00 0.00 96 1009.7
20260507051912 48 214 1.7 0.0 0.00 0.00 0.00 96 1009.7
20260507051812 48 97 1.7 0.0 0.00 0.00 0.00 96 1009.8
20260507051712 48 113 0.9 0.0 0.00 0.00 0.00 96 1009.8
20260507051612 48 286 1.7 0.0 0.00 0.00 0.00 96 1009.8
20260507051512 48 336 1.7 0.0 0.00 0.00 0.00 96 1009.8
20260507051412 48 307 1.7 0.0 0.00 0.00 0.00 96 1009.8
20260507051312 48 108 1.7 0.0 0.00 0.00 0.00 96 1009.8
20260507051212 48 323 1.7 0.0 0.00 0.00 0.00 96 1009.8
20260507051112 48 97 2.6 0.0 0.00 0.00 0.00 96 1009.7
20260507051012 48 189 0.9 0.0 0.00 0.00 0.00 96 1009.7
20260507050912 48 196 0.9 0.0 0.00 0.00 0.00 96 1009.8
20260507050812 48 4 2.6 0.0 0.00 0.00 0.00 96 1009.7
20260507050712 48 327 1.7 0.0 0.00 0.00 0.00 96 1009.7
20260507050612 48 249 2.6 0.0 0.00 0.00 0.00 96 1009.6
20260507050512 48 188 1.7 0.0 0.00 0.00 0.00 96 1009.7
20260507050412 48 236 1.7 0.0 0.00 0.00 0.00 96 1009.5
20260507050311 48 107 1.7 0.0 0.00 0.00 0.00 96 1009.6
20260507050211 48 97 1.7 0.0 0.00 0.00 0.00 96 1009.6
20260507050111 48 247 1.7 0.0 0.00 0.00 0.00 96 1009.6
20260507050011 48 148 2.6 0.0 0.00 0.00 0.00 96 1009.4
20260507045911 48 85 1.7 0.0 0.00 0.00 0.00 96 1009.6
20260507045811 48 133 1.7 0.0 0.00 0.00 0.00 96 1009.6
20260507045711 48 126 2.6 0.0 0.00 0.00 0.00 96 1009.5
20260507045611 48 208 1.7 0.0 0.00 0.00 0.00 96 1009.6
20260507045511 48 53 1.7 0.0 0.00 0.00 0.00 96 1009.6
20260507045411 48 286 2.6 0.0 0.00 0.00 0.00 96 1009.4
20260507045311 48 127 1.7 0.0 0.00 0.00 0.00 96 1009.4
20260507045211 48 100 1.7 0.0 0.00 0.00 0.00 96 1009.4
20260507045111 48 62 2.6 0.0 0.00 0.00 0.00 96 1009.4
20260507045011 48 172 2.6 0.0 0.00 0.00 0.00 96 1009.4
20260507044911 48 106 2.6 0.0 0.00 0.00 0.00 97 1009.5
20260507044811 48 193 2.6 0.0 0.00 0.00 0.00 96 1009.5
20260507044711 48 192 1.7 0.0 0.00 0.00 0.00 96 1009.5
20260507044610 48 277 2.6 0.0 0.00 0.00 0.00 96 1009.5
20260507044510 48 139 1.7 0.0 0.00 0.00 0.00 96 1009.3
20260507044410 48 108 1.7 0.0 0.00 0.00 0.00 96 1009.5
20260507044310 48 135 1.7 0.0 0.00 0.00 0.00 96 1009.3
20260507044210 48 186 2.6 0.0 0.00 0.00 0.00 96 1009.5
20260507044110 48 141 1.7 0.0 0.00 0.00 0.00 96 1009.4
20260507044010 48 49 0.9 0.0 0.00 0.00 0.00 96 1009.3
20260507043910 48 89 0.9 0.0 0.00 0.00 0.00 96 1009.4
20260507043810 48 238 3.5 0.0 0.00 0.00 0.00 96 1009.3
20260507043710 48 164 2.6 0.0 0.00 0.00 0.00 96 1009.3
20260507043610 48 130 2.6 0.0 0.00 0.00 0.00 96 1009.3
20260507043510 48 172 2.6 0.0 0.00 0.00 0.00 96 1009.3
20260507043410 48 194 1.7 0.0 0.00 0.00 0.00 96 1009.3
20260507043310 48 226 1.7 0.0 0.00 0.00 0.00 96 1009.2
20260507043210 48 197 2.6 0.0 0.00 0.00 0.00 96 1009.2
20260507043110 48 95 2.6 0.0 0.00 0.00 0.00 96 1009.3
20260507043009 48 20 1.7 0.0 0.00 0.00 0.00 96 1009.3
20260507042909 48 9 2.6 0.0 0.00 0.00 0.00 96 1009.3
20260507042809 48 97 1.7 0.0 0.00 0.00 0.00 96 1009.3
20260507042709 48 110 2.6 0.0 0.00 0.00 0.00 96 1009.2
20260507042609 48 320 2.6 0.0 0.00 0.00 0.00 96 1009.1
20260507042509 48 317 1.7 0.0 0.00 0.00 0.00 96 1009.3
20260507042409 48 43 1.7 0.0 0.00 0.00 0.00 96 1009.3
20260507042309 48 30 1.7 0.0 0.00 0.00 0.00 96 1009.2
20260507042209 48 181 1.7 0.0 0.00 0.00 0.00 96 1009.2
20260507042109 48 87 1.7 0.0 0.00 0.00 0.00 96 1009.2
20260507042009 48 17 2.6 0.0 0.00 0.00 0.00 96 1009.2
20260507041909 48 331 1.7 0.0 0.00 0.00 0.00 96 1009.1
20260507041809 48 80 1.7 0.0 0.00 0.00 0.00 96 1009.2
20260507041709 48 155 1.7 0.0 0.00 0.00 0.00 96 1009.1
20260507041609 48 149 1.7 0.0 0.00 0.00 0.00 96 1009.1
20260507041509 48 95 1.7 0.0 0.00 0.00 0.00 96 1009.2
20260507041409 48 286 1.7 0.0 0.00 0.00 0.00 96 1009.1
20260507041308 48 216 3.5 0.0 0.00 0.00 0.00 96 1009.1
20260507041208 48 216 2.6 0.0 0.00 0.00 0.00 96 1008.9
20260507041108 48 318 3.5 0.0 0.00 0.00 0.00 96 1008.9
20260507041008 48 246 3.5 0.0 0.00 0.00 0.00 96 1008.9
20260507040908 48 211 3.5 0.0 0.00 0.00 0.00 96 1008.9
20260507040808 48 79 1.7 0.0 0.00 0.00 0.00 95 1008.8
20260507040708 48 109 1.7 0.0 0.00 0.00 0.00 95 1008.8
20260507040608 48 105 1.7 0.0 0.00 0.00 0.00 95 1008.8
20260507040508 48 151 1.7 0.0 0.00 0.00 0.00 95 1008.9
20260507040408 48 210 1.7 0.0 0.00 0.00 0.00 96 1008.8
20260507040308 48 192 1.7 0.0 0.00 0.00 0.00 96 1008.8
20260507040208 48 271 2.6 0.0 0.00 0.00 0.00 96 1008.8
20260507040108 48 226 2.6 0.0 0.00 0.00 0.00 96 1008.9
20260507040008 48 27 1.7 0.0 0.00 0.00 0.00 96 1008.7
20260507035908 48 12 0.9 0.0 0.00 0.00 0.00 96 1008.8
20260507035808 48 47 2.6 0.0 0.00 0.00 0.00 96 1008.7
20260507035707 48 93 0.9 0.0 0.00 0.00 0.00 96 1008.8
20260507035607 48 309 2.6 0.0 0.00 0.00 0.00 96 1008.7
20260507035507 48 269 1.7 0.0 0.00 0.00 0.00 96 1008.8
20260507035407 48 54 1.7 0.0 0.00 0.00 0.00 96 1008.7
20260507035307 48 243 3.5 0.0 0.00 0.00 0.00 95 1008.6
20260507035207 48 216 3.5 0.0 0.00 0.00 0.00 95 1008.6
20260507035108 48 96 1.7 0.0 0.00 0.00 0.00 96 1008.7
20260507035007 48 99 2.6 0.0 0.00 0.00 0.00 95 1008.8
20260507034907 48 168 2.6 0.0 0.00 0.00 0.00 95 1008.7
20260507034807 48 261 3.5 0.0 0.00 0.00 0.00 96 1008.6
20260507034707 48 201 3.5 0.0 0.00 0.00 0.00 96 1008.7
20260507034607 49 207 3.5 0.0 0.00 0.00 0.00 95 1008.7
20260507034507 49 217 3.5 0.0 0.00 0.00 0.00 95 1008.6
20260507034407 48 149 3.5 0.0 0.00 0.00 0.00 95 1008.6
20260507034307 48 343 2.6 0.0 0.00 0.00 0.00 95 1008.6
20260507034207 48 123 2.6 0.0 0.00 0.00 0.00 95 1008.6
20260507034106 49 157 1.7 0.0 0.00 0.00 0.00 95 1008.7
20260507034006 49 85 2.6 0.0 0.00 0.00 0.00 95 1008.6
20260507033906 49 126 3.5 0.0 0.00 0.00 0.00 95 1008.7
20260507033806 49 149 1.7 0.0 0.00 0.00 0.00 95 1008.6
20260507033706 49 187 2.6 0.0 0.00 0.00 0.00 95 1008.6
20260507033606 48 197 3.5 0.0 0.00 0.00 0.00 95 1008.6
20260507033506 48 183 2.6 0.0 0.00 0.00 0.00 95 1008.6
20260507033406 49 110 2.6 0.0 0.00 0.00 0.00 95 1008.6
20260507033306 49 84 1.7 0.0 0.00 0.00 0.00 95 1008.6
20260507033206 49 256 1.7 0.0 0.00 0.00 0.00 95 1008.7
20260507033106 49 223 2.6 0.0 0.00 0.00 0.00 95 1008.7
20260507033006 49 233 3.5 0.0 0.00 0.00 0.00 95 1008.6
20260507032906 49 222 2.6 0.0 0.00 0.00 0.00 95 1008.6
20260507032806 49 166 2.6 0.0 0.00 0.00 0.00 95 1008.6
20260507032706 49 172 2.6 0.0 0.00 0.00 0.00 95 1008.6
20260507032606 49 188 2.6 0.0 0.00 0.00 0.00 95 1008.6
20260507032506 49 266 3.5 0.0 0.00 0.00 0.00 95 1008.5
20260507032405 49 157 2.6 0.0 0.00 0.00 0.00 95 1008.5
20260507032306 49 220 2.6 0.0 0.00 0.00 0.00 95 1008.5
20260507032205 49 205 1.7 0.0 0.00 0.00 0.00 95 1008.6
20260507032105 49 158 2.6 0.0 0.00 0.00 0.00 95 1008.5
20260507032005 49 156 2.6 0.0 0.00 0.00 0.00 95 1008.5
20260507031905 49 244 1.7 0.0 0.00 0.00 0.00 95 1008.6
20260507031805 49 207 2.6 0.0 0.00 0.00 0.00 95 1008.5
20260507031705 49 289 2.6 0.0 0.00 0.00 0.00 95 1008.6
20260507031605 49 119 3.5 0.0 0.00 0.00 0.00 95 1008.4
20260507031505 49 106 2.6 0.0 0.00 0.00 0.00 95 1008.5
20260507031405 49 120 2.6 0.0 0.00 0.00 0.00 95 1008.5
20260507031305 49 255 1.7 0.0 0.00 0.00 0.00 95 1008.4
20260507031205 49 180 2.6 0.0 0.00 0.00 0.00 95 1008.5
20260507031105 49 331 3.5 0.0 0.00 0.00 0.00 95 1008.5
20260507031005 49 6 3.5 0.0 0.00 0.00 0.00 95 1008.4
20260507030905 49 96 1.7 0.0 0.00 0.00 0.00 95 1008.4
20260507030804 49 245 1.7 0.0 0.00 0.00 0.00 95 1008.5
20260507030704 49 194 2.6 0.0 0.00 0.00 0.00 95 1008.3
20260507030604 49 70 1.7 0.0 0.00 0.00 0.00 95 1008.5
20260507030504 49 323 2.6 0.0 0.00 0.00 0.00 95 1008.4
20260507030404 49 4 1.7 0.0 0.00 0.00 0.00 95 1008.4
20260507030304 49 32 1.7 0.0 0.00 0.00 0.00 95 1008.4
20260507030204 49 158 0.9 0.0 0.00 0.00 0.00 95 1008.5
20260507030104 49 357 2.6 0.0 0.00 0.00 0.00 95 1008.4
20260507030004 49 323 0.9 0.0 0.00 0.00 0.00 95 1008.4
20260507025904 49 1 0.0 0.0 0.00 0.00 0.00 95 1008.4
20260507025804 49 349 0.9 0.0 0.00 0.00 0.00 95 1008.4
20260507025704 49 209 0.9 0.0 0.00 0.00 0.00 95 1008.4
20260507025604 49 151 0.9 0.0 0.00 0.00 0.00 95 1008.3
20260507025504 49 201 0.9 0.0 0.00 0.00 0.00 95 1008.4
20260507025404 49 157 0.0 0.0 0.00 0.00 0.00 95 1008.4
20260507025306 49 48 0.9 0.0 0.00 0.00 0.00 95 1008.4
20260507025204 49 82 0.9 0.0 0.00 0.00 0.00 95 1008.4
20260507025103 49 81 0.9 0.0 0.00 0.00 0.00 95 1008.4
20260507025003 49 73 0.0 0.0 0.00 0.00 0.00 95 1008.3
20260507024903 49 215 0.9 0.0 0.00 0.00 0.00 95 1008.3
20260507024803 49 249 0.9 0.0 0.00 0.00 0.00 95 1008.4
20260507024703 49 165 0.0 0.0 0.00 0.00 0.00 95 1008.3
20260507024603 49 115 1.7 0.0 0.00 0.00 0.00 95 1008.2
20260507024503 49 168 1.7 0.0 0.00 0.00 0.00 95 1008.2
20260507024403 49 80 0.9 0.0 0.00 0.00 0.00 95 1008.2
20260507024303 49 341 0.9 0.0 0.00 0.00 0.00 95 1008.3
20260507024203 49 354 2.6 0.0 0.00 0.00 0.00 95 1008.3
20260507024103 49 246 0.9 0.0 0.00 0.00 0.00 95 1008.3
20260507024003 49 72 1.7 0.0 0.00 0.00 0.00 95 1008.3
20260507023903 49 124 0.0 0.0 0.00 0.00 0.00 95 1008.4
20260507023803 49 33 0.0 0.0 0.00 0.00 0.00 95 1008.3
20260507023703 50 337 0.9 0.0 0.00 0.00 0.00 95 1008.3
20260507023603 50 145 0.9 0.0 0.00 0.00 0.00 95 1008.2
20260507023502 50 209 0.0 0.0 0.00 0.00 0.00 95 1008.2
20260507023402 50 71 0.9 0.0 0.00 0.00 0.00 95 1008.2
20260507023302 50 175 0.0 0.0 0.00 0.00 0.00 95 1008.2
20260507023202 50 190 1.7 0.0 0.00 0.00 0.00 95 1008.2
20260507023102 50 193 0.9 0.0 0.00 0.00 0.00 95 1008.4
20260507023002 50 63 0.9 0.0 0.00 0.00 0.00 95 1008.3
20260507022902 50 69 0.9 0.0 0.00 0.00 0.00 95 1008.2
20260507022802 50 192 0.9 0.0 0.00 0.00 0.00 95 1008.2
20260507022702 50 146 0.9 0.0 0.00 0.00 0.00 95 1008.2
20260507022602 50 157 0.0 0.0 0.00 0.00 0.00 95 1008.2
20260507022502 50 157 0.0 0.0 0.00 0.00 0.00 95 1008.3
20260507022402 50 140 0.9 0.0 0.00 0.00 0.00 95 1008.1
20260507022302 50 22 0.9 0.0 0.00 0.00 0.00 95 1008.1
20260507022202 50 175 0.9 0.0 0.00 0.00 0.00 95 1008.3
20260507022102 50 175 0.9 0.0 0.00 0.00 0.00 95 1008.2
20260507022002 50 49 1.7 0.0 0.00 0.00 0.00 95 1008.2
20260507021902 50 321 0.9 0.0 0.00 0.00 0.00 95 1008.3
20260507021801 50 186 0.9 0.0 0.00 0.00 0.00 95 1008.2
20260507021701 50 164 0.0 0.0 0.00 0.00 0.00 95 1008.2
20260507021601 50 130 0.0 0.0 0.00 0.00 0.00 95 1008.1
20260507021501 50 198 1.7 0.0 0.00 0.00 0.00 95 1008.1
20260507021401 50 297 0.9 0.0 0.00 0.00 0.00 95 1008.2
20260507021301 50 256 0.0 0.0 0.00 0.00 0.00 95 1008.0
20260507021201 50 56 0.9 0.0 0.00 0.00 0.00 95 1008.1
20260507021101 50 80 0.9 0.0 0.00 0.00 0.00 95 1008.0
20260507021001 50 218 0.9 0.0 0.00 0.00 0.00 95 1008.1
20260507020901 50 195 1.7 0.0 0.00 0.00 0.00 95 1008.1
20260507020801 50 273 0.9 0.0 0.00 0.00 0.00 95 1008.2
20260507020701 50 23 0.9 0.0 0.00 0.00 0.00 95 1008.0
20260507020601 50 37 0.9 0.0 0.00 0.00 0.00 95 1008.1
20260507020501 50 234 1.7 0.0 0.00 0.00 0.00 95 1008.0
20260507020401 50 130 0.9 0.0 0.00 0.00 0.00 95 1008.0
20260507020301 50 84 0.9 0.0 0.00 0.00 0.00 95 1008.0
20260507020200 50 210 0.9 0.0 0.00 0.00 0.00 95 1008.0
20260507020100 50 12 0.9 0.0 0.00 0.00 0.00 95 1007.9
20260507020000 50 46 1.7 0.0 0.00 0.00 0.00 95 1008.1
20260507015900 50 219 0.9 0.0 0.00 0.00 0.00 95 1008.0
20260507015800 50 159 0.9 0.0 0.00 0.00 0.00 95 1008.1
20260507015700 50 210 1.7 0.0 0.00 0.00 0.00 95 1008.1
20260507015600 50 215 0.9 0.0 0.00 0.00 0.00 95 1007.9
20260507015500 50 264 0.9 0.0 0.00 0.00 0.00 95 1008.0
20260507015400 50 195 1.7 0.0 0.00 0.00 0.00 95 1008.1
20260507015300 50 127 0.9 0.0 0.00 0.00 0.00 95 1008.0
20260507015200 50 357 0.9 0.0 0.00 0.00 0.00 95 1008.0
20260507015100 50 297 2.6 0.0 0.00 0.00 0.00 95 1008.0
20260507015000 50 68 0.9 0.0 0.00 0.00 0.00 95 1007.9
20260507014900 50 229 0.0 0.0 0.00 0.00 0.00 95 1008.0
20260507014800 50 358 0.9 0.0 0.00 0.00 0.00 95 1008.0
20260507014700 50 213 1.7 0.0 0.00 0.00 0.00 95 1007.8
20260507014600 50 198 1.7 0.0 0.00 0.00 0.00 95 1008.0
20260507014459 51 313 0.9 0.0 0.00 0.00 0.00 95 1007.8
20260507014400 51 320 0.0 0.0 0.00 0.00 0.00 95 1007.9
20260507014259 51 323 1.7 0.0 0.00 0.00 0.00 95 1008.0
20260507014159 51 31 0.9 0.0 0.00 0.00 0.00 95 1007.9
20260507014059 51 260 0.9 0.0 0.00 0.00 0.00 95 1007.9
20260507013959 51 244 1.7 0.0 0.00 0.00 0.00 95 1007.9
20260507013859 51 226 2.6 0.0 0.00 0.00 0.00 95 1007.8
20260507013759 51 22 1.7 0.0 0.00 0.00 0.00 95 1007.8
20260507013659 51 340 1.7 0.0 0.00 0.00 0.00 95 1007.8
20260507013559 51 306 1.7 0.0 0.00 0.00 0.00 95 1007.9
20260507013459 51 309 0.9 0.0 0.00 0.00 0.00 95 1007.8
20260507013359 51 320 1.7 0.0 0.00 0.00 0.00 95 1007.8
20260507013259 51 66 0.9 0.0 0.00 0.00 0.00 95 1007.9
20260507013159 51 242 1.7 0.0 0.00 0.00 0.00 95 1007.8
20260507013059 51 166 0.9 0.0 0.00 0.00 0.00 95 1007.7
20260507012958 51 118 0.0 0.0 0.00 0.00 0.00 95 1007.8
20260507012858 51 100 0.9 0.0 0.00 0.00 0.00 95 1007.8
20260507012758 51 244 1.7 0.0 0.00 0.00 0.00 95 1007.8
20260507012658 51 126 0.0 0.0 0.00 0.00 0.00 95 1007.7
20260507012558 51 251 0.9 0.0 0.00 0.00 0.00 95 1007.7
20260507012458 51 350 0.9 0.0 0.00 0.00 0.00 95 1007.7
20260507012358 51 186 1.7 0.0 0.00 0.00 0.00 95 1007.7
20260507012258 51 329 2.6 0.0 0.00 0.00 0.00 95 1007.8
20260507012158 51 339 0.9 0.0 0.00 0.00 0.00 95 1007.7
20260507012058 51 285 2.6 0.0 0.00 0.00 0.00 95 1007.8
20260507011958 51 36 0.0 0.0 0.00 0.00 0.00 95 1007.7
20260507011858 51 172 0.9 0.0 0.00 0.00 0.00 95 1007.7
20260507011758 51 102 2.6 0.0 0.00 0.00 0.00 95 1007.7
20260507011658 51 222 0.9 0.0 0.00 0.00 0.00 95 1007.7
20260507011558 51 48 0.9 0.0 0.00 0.00 0.00 95 1007.7
20260507011458 51 120 0.9 0.0 0.00 0.00 0.00 95 1007.8
20260507011358 51 293 0.0 0.0 0.00 0.00 0.00 94 1007.7
20260507011258 51 144 0.9 0.0 0.00 0.00 0.00 95 1007.6
20260507011157 51 197 0.9 0.0 0.00 0.00 0.00 95 1007.7
20260507011057 51 229 0.9 0.0 0.00 0.00 0.00 94 1007.6
20260507010957 51 49 2.6 0.0 0.00 0.00 0.00 94 1007.5
20260507010857 51 144 0.9 0.0 0.00 0.00 0.00 94 1007.5
20260507010757 51 161 1.7 0.0 0.00 0.00 0.00 94 1007.7
20260507010657 51 344 1.7 0.0 0.00 0.00 0.00 94 1007.6
20260507010557 51 9 1.7 0.0 0.00 0.00 0.00 94 1007.6
20260507010457 51 166 1.7 0.0 0.00 0.00 0.00 94 1007.6
20260507010357 51 249 1.7 0.0 0.00 0.00 0.00 94 1007.6
20260507010257 51 113 0.0 0.0 0.00 0.00 0.00 94 1007.7
20260507010157 51 288 1.7 0.0 0.00 0.00 0.00 94 1007.7
20260507010057 51 326 0.9 0.0 0.00 0.00 0.00 94 1007.6
20260507005957 51 309 1.7 0.0 0.00 0.00 0.00 94 1007.5
20260507005857 51 230 1.7 0.0 0.00 0.00 0.00 94 1007.6
20260507005757 51 256 0.9 0.0 0.00 0.00 0.00 94 1007.5
20260507005657 51 152 0.9 0.0 0.00 0.00 0.00 94 1007.5
20260507005556 51 135 0.9 0.0 0.00 0.00 0.00 94 1007.7
20260507005456 51 278 0.9 0.0 0.00 0.00 0.00 94 1007.6
20260507005356 51 315 0.9 0.0 0.00 0.00 0.00 94 1007.7
20260507005256 51 5 1.7 0.0 0.00 0.00 0.00 94 1007.7
20260507005156 51 65 0.9 0.0 0.00 0.00 0.00 94 1007.7
20260507005056 51 243 0.9 0.0 0.00 0.00 0.00 94 1007.6
20260507004956 51 224 0.9 0.0 0.00 0.00 0.00 94 1007.6
20260507004856 51 7 0.9 0.0 0.00 0.00 0.00 94 1007.6
20260507004756 51 147 0.9 0.0 0.00 0.00 0.00 94 1007.7
20260507004656 51 8 0.9 0.0 0.00 0.00 0.00 94 1007.7
20260507004556 51 121 0.0 0.0 0.00 0.00 0.00 94 1007.7
20260507004456 51 128 0.0 0.0 0.00 0.00 0.00 94 1007.6
20260507004356 51 89 0.9 0.0 0.00 0.00 0.00 94 1007.6
20260507004256 51 280 0.9 0.0 0.00 0.00 0.00 94 1007.6
20260507004156 51 100 0.9 0.0 0.00 0.00 0.00 94 1007.6
20260507004056 51 63 0.9 0.0 0.00 0.00 0.00 94 1007.5
20260507003955 51 4 0.0 0.0 0.00 0.00 0.00 94 1007.6
20260507003855 51 233 0.0 0.0 0.00 0.00 0.00 94 1007.6
20260507003755 51 119 0.9 0.0 0.00 0.00 0.00 94 1007.5
20260507003655 51 201 0.9 0.0 0.00 0.00 0.00 94 1007.6
20260507003555 51 310 0.0 0.0 0.00 0.00 0.00 94 1007.6
20260507003455 51 345 1.7 0.0 0.00 0.00 0.00 94 1007.5
20260507003355 51 60 0.9 0.0 0.00 0.00 0.00 94 1007.6
20260507003255 51 192 0.9 0.0 0.00 0.00 0.00 94 1007.6
20260507003155 51 140 1.7 0.0 0.00 0.00 0.00 94 1007.7
20260507003055 51 144 0.9 0.0 0.00 0.00 0.00 94 1007.7
20260507002955 51 325 0.9 0.0 0.00 0.00 0.00 94 1007.6
20260507002855 51 224 0.9 0.0 0.00 0.00 0.00 94 1007.6
20260507002755 51 84 1.7 0.0 0.00 0.00 0.00 94 1007.5
20260507002655 51 225 0.9 0.0 0.00 0.00 0.00 94 1007.6
20260507002555 51 74 1.7 0.0 0.00 0.00 0.00 94 1007.5
20260507002455 51 30 1.7 0.0 0.00 0.00 0.00 94 1007.6
20260507002354 51 43 0.9 0.0 0.00 0.00 0.00 94 1007.5
20260507002254 51 26 0.9 0.0 0.00 0.00 0.00 94 1007.5
20260507002154 52 56 0.9 0.0 0.00 0.00 0.00 94 1007.5
20260507002054 52 359 0.9 0.0 0.00 0.00 0.00 94 1007.5
20260507001954 51 126 0.9 0.0 0.00 0.00 0.00 94 1007.5
20260507001854 52 19 3.5 0.0 0.00 0.00 0.00 94 1007.3
20260507001754 52 326 1.7 0.0 0.00 0.00 0.00 94 1007.5
20260507001654 52 135 0.9 0.0 0.00 0.00 0.00 94 1007.4
20260507001554 52 154 2.6 0.0 0.00 0.00 0.00 94 1007.5
20260507001455 52 339 0.9 0.0 0.00 0.00 0.00 94 1007.3
20260507001354 52 108 1.7 0.0 0.00 0.00 0.00 94 1007.4
20260507001254 52 211 0.9 0.0 0.00 0.00 0.00 94 1007.4
20260507001154 52 197 0.0 0.0 0.00 0.00 0.00 94 1007.5
20260507001054 52 176 0.9 0.0 0.00 0.00 0.00 94 1007.5
20260507000954 52 192 0.0 0.0 0.00 0.00 0.00 94 1007.4
20260507000854 52 315 0.9 0.0 0.00 0.00 0.00 94 1007.4
20260507000753 52 115 0.9 0.0 0.00 0.00 0.00 94 1007.4
20260507000653 52 54 0.9 0.0 0.00 0.00 0.00 94 1007.5
20260507000553 52 150 1.7 0.0 0.00 0.00 0.00 94 1007.4
20260507000453 52 149 0.9 0.0 0.00 0.00 0.00 94 1007.4
20260507000353 52 354 0.9 0.0 0.00 0.00 0.00 94 1007.6
20260507000253 52 323 0.9 0.0 0.00 0.00 0.00 94 1007.5
20260507000153 52 148 1.7 0.0 0.00 0.00 0.00 94 1007.4
20260507000053 52 0 0.9 0.0 0.00 0.00 0.00 94 1007.6
20260506235953 52 226 0.9 0.0 0.00 0.00 0.00 94 1007.5
20260506235853 52 222 0.9 0.0 0.00 0.00 0.00 94 1007.6
20260506235753 52 165 0.9 0.0 0.00 0.00 0.00 94 1007.6
20260506235653 52 324 1.7 0.0 0.00 0.00 0.00 94 1007.5
20260506235553 52 299 0.9 0.0 0.00 0.00 0.00 94 1007.5
20260506235453 52 84 0.9 0.0 0.00 0.00 0.00 94 1007.6
20260506235353 52 99 1.7 0.0 0.00 0.00 0.00 94 1007.5
20260506235253 52 205 0.9 0.0 0.00 0.00 0.00 94 1007.5
20260506235153 52 150 1.7 0.0 0.00 0.00 0.00 94 1007.5
20260506235052 52 193 0.9 0.0 0.00 0.00 0.00 94 1007.6
20260506234952 52 1 2.6 0.0 0.00 0.00 0.00 94 1007.6
20260506234852 52 153 0.9 0.0 0.00 0.00 0.00 94 1007.5
20260506234752 52 230 1.7 0.0 0.00 0.00 0.00 94 1007.6
20260506234652 52 135 0.9 0.0 0.00 0.00 0.00 94 1007.4
20260506234552 52 173 0.0 0.0 0.00 0.00 0.00 94 1007.5
20260506234452 52 313 1.7 0.0 0.00 0.00 0.00 94 1007.4
20260506234352 52 49 1.7 0.0 0.00 0.00 0.00 94 1007.5
20260506234252 52 186 0.9 0.0 0.00 0.00 0.00 94 1007.5
20260506234152 52 305 1.7 0.0 0.00 0.00 0.00 94 1007.5
20260506234052 52 16 1.7 0.0 0.00 0.00 0.00 94 1007.5
20260506233952 52 51 0.9 0.0 0.00 0.00 0.00 94 1007.5
20260506233852 52 99 0.0 0.0 0.00 0.00 0.00 94 1007.5
20260506233752 52 62 0.0 0.0 0.00 0.00 0.00 94 1007.5
20260506233652 52 310 0.9 0.0 0.00 0.00 0.00 94 1007.4
20260506233552 52 160 0.0 0.0 0.00 0.00 0.00 94 1007.5
20260506233452 52 240 0.9 0.0 0.00 0.00 0.00 94 1007.5
20260506233351 52 205 0.0 0.0 0.00 0.00 0.00 94 1007.4
20260506233251 52 27 0.9 0.0 0.00 0.00 0.00 94 1007.4
20260506233151 52 354 0.9 0.0 0.00 0.00 0.00 94 1007.4
20260506233051 52 174 0.9 0.0 0.00 0.00 0.00 94 1007.4
20260506232951 52 160 0.9 0.0 0.00 0.00 0.00 94 1007.4
20260506232851 52 89 0.9 0.0 0.00 0.00 0.00 94 1007.4
20260506232751 52 189 0.0 0.0 0.00 0.00 0.00 94 1007.4
20260506232651 52 33 0.9 0.0 0.00 0.00 0.00 94 1007.4
20260506232551 52 204 0.0 0.0 0.00 0.00 0.00 94 1007.5
20260506232451 53 217 0.0 0.0 0.00 0.00 0.00 94 1007.5
20260506232351 53 183 0.9 0.0 0.00 0.00 0.00 94 1007.4
20260506232251 53 196 0.9 0.0 0.00 0.00 0.00 94 1007.5
20260506232151 53 124 1.7 0.0 0.00 0.00 0.00 94 1007.4
20260506232051 53 44 0.0 0.0 0.00 0.00 0.00 94 1007.4
20260506231951 53 97 0.9 0.0 0.00 0.00 0.00 94 1007.5
20260506231851 53 50 0.0 0.0 0.00 0.00 0.00 94 1007.5
20260506231751 53 208 0.9 0.0 0.00 0.00 0.00 94 1007.4
20260506231650 53 48 0.9 0.0 0.00 0.00 0.00 94 1007.4
20260506231550 53 22 0.0 0.0 0.00 0.00 0.00 94 1007.4
20260506231450 53 117 0.0 0.0 0.00 0.00 0.00 94 1007.4
20260506231350 53 16 0.9 0.0 0.00 0.00 0.00 94 1007.4
20260506231250 53 25 0.0 0.0 0.00 0.00 0.00 94 1007.4
20260506231150 53 309 0.0 0.0 0.00 0.00 0.00 94 1007.4
20260506231050 53 277 0.0 0.0 0.00 0.00 0.00 94 1007.3
20260506230950 53 22 0.0 0.0 0.00 0.00 0.00 94 1007.4
20260506230850 53 250 0.0 0.0 0.00 0.00 0.00 94 1007.4
20260506230750 53 212 0.0 0.0 0.00 0.00 0.00 94 1007.3
20260506230650 53 314 0.9 0.0 0.00 0.00 0.00 94 1007.4
20260506230550 53 205 0.9 0.0 0.00 0.00 0.00 94 1007.4
20260506230450 53 209 0.9 0.0 0.00 0.00 0.00 94 1007.4
20260506230350 53 41 0.9 0.0 0.00 0.00 0.00 94 1007.3
20260506230250 53 230 0.0 0.0 0.00 0.00 0.00 94 1007.3
20260506230150 53 240 0.9 0.0 0.00 0.00 0.00 94 1007.4
20260506230049 53 28 0.9 0.0 0.00 0.00 0.00 94 1007.3
20260506225949 53 6 0.0 0.0 0.00 0.00 0.00 94 1007.4
20260506225849 53 92 2.6 0.0 0.00 0.00 0.00 94 1007.4
20260506225749 53 49 0.9 0.0 0.00 0.00 0.00 94 1007.3
20260506225649 53 40 0.9 0.0 0.00 0.00 0.00 94 1007.4
20260506225549 53 206 0.9 0.0 0.00 0.00 0.00 93 1007.3
20260506225449 53 140 0.0 0.0 0.00 0.00 0.00 93 1007.3
20260506225349 53 312 0.9 0.0 0.00 0.00 0.00 93 1007.4
20260506225249 53 295 0.9 0.0 0.00 0.00 0.00 93 1007.4
20260506225149 53 312 0.9 0.0 0.00 0.00 0.00 93 1007.3
20260506225049 53 44 0.9 0.0 0.00 0.00 0.00 93 1007.3
20260506224949 53 253 0.9 0.0 0.00 0.00 0.00 93 1007.3
20260506224849 53 301 1.7 0.0 0.00 0.00 0.00 93 1007.3
20260506224749 53 249 0.9 0.0 0.00 0.00 0.00 93 1007.3
20260506224649 53 6 0.0 0.0 0.00 0.00 0.00 93 1007.3
20260506224549 53 37 0.9 0.0 0.00 0.00 0.00 93 1007.3
20260506224448 53 305 0.9 0.0 0.00 0.00 0.00 93 1007.4
20260506224348 53 224 1.7 0.0 0.00 0.00 0.00 93 1007.3
20260506224248 53 207 0.0 0.0 0.00 0.00 0.00 93 1007.4
20260506224148 53 357 1.7 0.0 0.00 0.00 0.00 93 1007.3
20260506224048 53 265 2.6 0.0 0.00 0.00 0.00 93 1007.2
20260506223948 53 34 0.9 0.0 0.00 0.00 0.00 93 1007.2
20260506223848 53 304 0.9 0.0 0.00 0.00 0.00 93 1007.2
20260506223748 53 322 0.0 0.0 0.00 0.00 0.00 93 1007.2
20260506223648 53 125 0.0 0.0 0.00 0.00 0.00 93 1007.2
20260506223548 53 294 0.9 0.0 0.00 0.00 0.00 93 1007.2
20260506223448 53 47 1.7 0.0 0.00 0.00 0.00 93 1007.2
20260506223348 53 279 0.9 0.0 0.00 0.00 0.00 93 1007.1
20260506223248 53 0 1.7 0.0 0.00 0.00 0.00 93 1007.2
20260506223148 53 296 0.9 0.0 0.00 0.00 0.00 94 1007.3
20260506223048 53 1 0.9 0.0 0.00 0.00 0.00 94 1007.1
20260506222948 53 256 0.0 0.0 0.00 0.00 0.00 94 1007.1
20260506222847 53 159 0.9 0.0 0.00 0.00 0.00 94 1007.2
20260506222747 53 261 0.9 0.0 0.00 0.00 0.00 94 1007.2
20260506222647 53 269 1.7 0.0 0.00 0.00 0.00 94 1007.1
20260506222547 53 342 0.9 0.0 0.00 0.00 0.00 94 1007.1
20260506222447 53 339 0.9 0.0 0.00 0.00 0.00 94 1007.1
20260506222347 53 66 0.9 0.0 0.00 0.00 0.00 94 1007.1
20260506222247 53 68 0.0 0.0 0.00 0.00 0.00 94 1007.1
20260506222147 53 193 0.0 0.0 0.00 0.00 0.00 94 1007.1
20260506222047 53 303 1.7 0.0 0.00 0.00 0.00 94 1007.1
20260506221947 53 180 1.7 0.0 0.00 0.00 0.00 94 1007.2
20260506221847 53 246 1.7 0.0 0.00 0.00 0.00 94 1007.1
20260506221747 53 309 0.0 0.0 0.00 0.00 0.00 94 1007.1
20260506221647 53 159 0.0 0.0 0.00 0.00 0.00 94 1007.0
20260506221547 53 180 0.0 0.0 0.00 0.00 0.00 94 1007.1
20260506221447 53 322 0.0 0.0 0.00 0.00 0.00 94 1007.0
20260506221347 53 173 1.7 0.0 0.00 0.00 0.00 94 1007.1
20260506221247 53 27 1.7 0.0 0.00 0.00 0.00 95 1007.1
20260506221146 53 242 0.0 0.0 0.00 0.00 0.00 95 1007.1
20260506221046 53 89 0.9 0.0 0.00 0.00 0.00 95 1007.0
20260506220946 53 78 0.9 0.0 0.00 0.00 0.00 95 1007.0
20260506220846 53 101 0.9 0.0 0.00 0.00 0.00 95 1007.1
20260506220746 53 79 0.0 0.0 0.00 0.00 0.00 95 1007.1
20260506220646 53 197 0.9 0.0 0.00 0.00 0.00 95 1007.1
20260506220546 53 246 0.0 0.0 0.00 0.00 0.00 96 1007.0
20260506220446 53 205 0.0 0.0 0.00 0.00 0.00 96 1007.1
20260506220346 53 104 0.9 0.0 0.00 0.00 0.00 96 1007.0
20260506220246 53 50 0.9 0.0 0.00 0.00 0.00 96 1007.0
20260506220146 53 252 0.9 0.0 0.00 0.00 0.00 96 1007.0
20260506220046 53 286 0.9 0.0 0.00 0.00 0.00 96 1007.0
20260506215946 53 11 0.9 0.0 0.00 0.00 0.00 96 1007.0
20260506215846 53 154 0.0 0.0 0.00 0.00 0.00 96 1007.0
20260506215746 53 1 0.0 0.0 0.00 0.00 0.00 96 1007.0
20260506215646 53 293 0.0 0.0 0.00 0.00 0.00 96 1007.0
20260506215545 53 293 0.9 0.0 0.00 0.00 0.00 96 1007.1
20260506215445 53 50 0.0 0.0 0.00 0.00 0.00 96 1007.0
20260506215345 53 50 0.0 0.0 0.00 0.00 0.00 96 1007.1
20260506215245 53 62 0.0 0.0 0.00 0.00 0.00 96 1007.0
20260506215145 53 191 0.0 0.0 0.00 0.00 0.00 96 1007.1
20260506215045 53 62 0.0 0.0 0.00 0.00 0.00 96 1007.0
20260506214945 53 89 0.0 0.0 0.00 0.00 0.00 96 1007.1
20260506214845 53 141 0.0 0.0 0.00 0.00 0.00 96 1007.1
20260506214745 53 302 0.9 0.0 0.00 0.00 0.00 96 1007.1
20260506214645 53 170 0.9 0.0 0.00 0.00 0.00 96 1007.1
20260506214545 53 142 0.0 0.0 0.00 0.00 0.00 96 1007.1
20260506214445 53 13 0.0 0.0 0.00 0.00 0.00 96 1007.0
20260506214345 53 13 0.0 0.0 0.00 0.00 0.00 96 1007.0
20260506214245 53 55 0.0 0.0 0.00 0.00 0.00 96 1007.1
20260506214145 53 315 0.9 0.0 0.00 0.00 0.00 96 1007.0
20260506214045 53 238 0.0 0.0 0.00 0.00 0.00 96 1007.1
20260506213945 53 269 0.0 0.0 0.00 0.00 0.00 96 1007.1
20260506213844 53 269 0.0 0.0 0.00 0.00 0.00 96 1007.1
20260506213744 53 269 0.9 0.0 0.00 0.00 0.00 96 1007.1
20260506213644 53 276 0.0 0.0 0.00 0.00 0.00 96 1007.1
20260506213544 53 260 0.9 0.0 0.00 0.00 0.00 96 1007.1
20260506213444 53 38 0.0 0.0 0.00 0.00 0.00 96 1007.0
20260506213344 53 224 0.0 0.0 0.00 0.00 0.00 96 1007.0
20260506213244 53 279 0.9 0.0 0.00 0.00 0.00 96 1007.1
20260506213144 53 116 0.9 0.0 0.00 0.00 0.00 96 1007.1
20260506213044 53 230 0.0 0.0 0.00 0.00 0.00 96 1007.0
20260506212944 53 230 0.0 0.0 0.00 0.00 0.00 96 1007.0
20260506212844 53 89 0.0 0.0 0.00 0.00 0.00 96 1007.0
20260506212744 53 89 0.0 0.0 0.00 0.00 0.00 96 1007.0
20260506212644 53 95 0.9 0.0 0.00 0.00 0.00 96 1006.9
20260506212544 53 103 0.0 0.0 0.00 0.00 0.00 96 1006.9
20260506212444 53 103 0.0 0.0 0.00 0.00 0.00 96 1006.9
20260506212344 53 47 0.9 0.0 0.00 0.00 0.00 96 1007.0
20260506212243 53 57 0.9 0.0 0.00 0.00 0.00 96 1006.9
20260506212143 53 13 0.9 0.0 0.00 0.00 0.00 96 1007.0
20260506212043 53 315 0.0 0.0 0.00 0.00 0.00 96 1006.9
20260506211943 53 322 0.9 0.0 0.00 0.00 0.00 96 1006.9
20260506211843 53 50 0.9 0.0 0.00 0.00 0.00 96 1007.0
20260506211743 53 13 0.9 0.0 0.00 0.00 0.00 96 1006.9
20260506211643 53 32 0.0 0.0 0.00 0.00 0.00 96 1006.9
20260506211543 53 115 0.0 0.0 0.00 0.00 0.00 96 1007.0
20260506211443 53 129 0.0 0.0 0.00 0.00 0.00 96 1006.9
20260506211343 53 133 0.0 0.0 0.00 0.00 0.00 96 1006.9
20260506211243 53 135 0.0 0.0 0.00 0.00 0.00 96 1006.9
20260506211143 53 146 0.0 0.0 0.00 0.00 0.00 96 1006.9
20260506211043 53 193 0.0 0.0 0.00 0.00 0.00 96 1006.8
20260506210943 53 150 0.9 0.0 0.00 0.00 0.00 96 1006.9
20260506210843 53 212 0.0 0.0 0.00 0.00 0.00 96 1006.9
20260506210743 53 218 0.9 0.0 0.00 0.00 0.00 96 1006.8
20260506210643 53 232 0.0 0.0 0.00 0.00 0.00 96 1006.8
20260506210542 53 199 0.0 0.0 0.00 0.00 0.00 96 1006.8
20260506210442 53 315 0.0 0.0 0.00 0.00 0.00 96 1006.8
20260506210342 53 315 0.0 0.0 0.00 0.00 0.00 96 1006.8
20260506210242 53 315 0.0 0.0 0.00 0.00 0.00 96 1006.7
20260506210142 53 257 0.0 0.0 0.00 0.00 0.00 96 1006.7
20260506210042 53 135 0.0 0.0 0.00 0.00 0.00 96 1006.8
20260506205942 53 204 0.0 0.0 0.00 0.00 0.00 96 1006.8
20260506205842 53 101 0.0 0.0 0.00 0.00 0.00 96 1006.7
20260506205742 53 135 0.0 0.0 0.00 0.00 0.00 96 1006.7
20260506205642 53 135 0.0 0.0 0.00 0.00 0.00 96 1006.7
20260506205542 53 135 0.0 0.0 0.00 0.00 0.00 96 1006.8
20260506205442 53 135 0.0 0.0 0.00 0.00 0.00 96 1006.7
20260506205342 53 55 0.0 0.0 0.00 0.00 0.00 96 1006.8
20260506205242 53 336 0.0 0.0 0.00 0.00 0.00 96 1006.7
20260506205142 53 336 0.0 0.0 0.00 0.00 0.00 96 1006.8
20260506205042 53 154 0.0 0.0 0.00 0.00 0.00 96 1006.8
20260506204942 53 135 0.0 0.0 0.00 0.00 0.00 96 1006.8
20260506204841 53 135 0.0 0.0 0.00 0.00 0.00 96 1006.8
20260506204741 53 76 0.0 0.0 0.00 0.00 0.00 96 1006.9
20260506204641 53 119 0.0 0.0 0.00 0.00 0.00 96 1006.8
20260506204541 53 347 0.0 0.0 0.00 0.00 0.00 96 1006.8
20260506204441 53 297 0.0 0.0 0.00 0.00 0.00 96 1006.7
20260506204341 53 297 0.0 0.0 0.00 0.00 0.00 96 1006.7
20260506204241 53 129 0.0 0.0 0.00 0.00 0.00 96 1006.7
20260506204141 53 77 0.0 0.0 0.00 0.00 0.00 95 1006.7
20260506204041 53 69 0.0 0.0 0.00 0.00 0.00 95 1006.7
20260506203941 53 135 0.0 0.0 0.00 0.00 0.00 95 1006.7
20260506203841 53 68 0.0 0.0 0.00 0.00 0.00 95 1006.7
20260506203741 53 44 0.0 0.0 0.00 0.00 0.00 95 1006.7
20260506203641 53 50 0.0 0.0 0.00 0.00 0.00 95 1006.7
20260506203541 53 50 0.9 0.0 0.00 0.00 0.00 95 1006.7
20260506203441 53 53 0.9 0.0 0.00 0.00 0.00 95 1006.8
20260506203341 53 66 0.0 0.0 0.00 0.00 0.00 95 1006.7
20260506203240 53 57 0.9 0.0 0.00 0.00 0.00 95 1006.8
20260506203140 53 55 0.9 0.0 0.00 0.00 0.00 95 1006.8
20260506203040 54 77 0.0 0.0 0.00 0.00 0.00 95 1006.7
20260506202940 54 74 0.0 0.0 0.00 0.00 0.00 95 1006.8
20260506202840 54 188 0.0 0.0 0.00 0.00 0.00 95 1006.7
20260506202740 54 188 0.9 0.0 0.00 0.00 0.00 95 1006.7
20260506202640 54 192 0.0 0.0 0.00 0.00 0.00 95 1006.7
20260506202540 54 184 0.0 0.0 0.00 0.00 0.00 95 1006.7
20260506202440 54 179 0.0 0.0 0.00 0.00 0.00 95 1006.7
20260506202340 54 205 0.0 0.0 0.00 0.00 0.00 95 1006.8
20260506202240 54 287 0.9 0.0 0.00 0.00 0.00 95 1006.7
20260506202140 54 315 0.0 0.0 0.00 0.00 0.00 95 1006.7
20260506202040 54 315 0.0 0.0 0.00 0.00 0.00 95 1006.9
20260506201940 54 315 0.0 0.0 0.00 0.00 0.00 95 1006.8
20260506201840 54 315 0.0 0.0 0.00 0.00 0.00 95 1006.8
20260506201740 54 315 0.0 0.0 0.00 0.00 0.00 95 1006.8
20260506201639 54 315 0.0 0.0 0.00 0.00 0.00 95 1006.7
20260506201539 54 315 0.0 0.0 0.00 0.00 0.00 95 1006.7
20260506201439 54 315 0.0 0.0 0.00 0.00 0.00 95 1006.8
20260506201339 54 315 0.0 0.0 0.00 0.00 0.00 95 1006.8
20260506201239 54 309 0.0 0.0 0.00 0.00 0.00 95 1006.8
20260506201139 54 309 0.0 0.0 0.00 0.00 0.00 95 1006.8
20260506201039 54 36 0.0 0.0 0.00 0.00 0.00 95 1006.7
20260506200939 54 50 0.0 0.0 0.00 0.00 0.00 94 1006.7
20260506200839 54 77 0.9 0.0 0.00 0.00 0.00 94 1006.7
20260506200739 54 315 0.0 0.0 0.00 0.00 0.00 94 1006.7
20260506200639 54 315 0.0 0.0 0.00 0.00 0.00 94 1006.7
20260506200539 54 315 0.0 0.0 0.00 0.00 0.00 94 1006.6
20260506200439 54 315 0.0 0.0 0.00 0.00 0.00 94 1006.6
20260506200339 54 315 0.0 0.0 0.00 0.00 0.00 94 1006.7
20260506200239 54 315 0.0 0.0 0.00 0.00 0.00 94 1006.7
20260506200139 54 315 0.0 0.0 0.00 0.00 0.00 94 1006.6
20260506200038 54 315 0.0 0.0 0.00 0.00 0.00 94 1006.7
20260506195938 54 315 0.0 0.0 0.00 0.00 0.00 94 1006.7
20260506195838 54 315 0.0 0.0 0.00 0.00 0.00 94 1006.7
20260506195738 54 315 0.0 0.0 0.00 0.00 0.00 94 1006.6
20260506195638 54 315 0.0 0.0 0.00 0.00 0.00 94 1006.6
20260506195538 54 315 0.0 0.0 0.00 0.00 0.00 94 1006.6
20260506195438 54 80 0.0 0.0 0.00 0.00 0.00 94 1006.6
20260506195338 54 80 0.0 0.0 0.00 0.00 0.00 94 1006.5
20260506195238 54 80 0.0 0.0 0.00 0.00 0.00 94 1006.5
20260506195138 54 80 0.0 0.0 0.00 0.00 0.00 94 1006.5
20260506195038 54 80 0.0 0.0 0.00 0.00 0.00 94 1006.5
20260506194938 54 89 0.9 0.0 0.00 0.00 0.00 94 1006.6
20260506194838 54 52 0.0 0.0 0.00 0.00 0.00 94 1006.5
20260506194738 54 62 0.0 0.0 0.00 0.00 0.00 94 1006.6
20260506194638 54 62 0.0 0.0 0.00 0.00 0.00 94 1006.6
20260506194538 54 50 0.0 0.0 0.00 0.00 0.00 94 1006.6
20260506194438 54 224 0.0 0.0 0.00 0.00 0.00 94 1006.6
20260506194337 54 224 0.0 0.0 0.00 0.00 0.00 94 1006.5
20260506194237 54 183 0.0 0.0 0.00 0.00 0.00 94 1006.5
20260506194137 54 224 0.0 0.0 0.00 0.00 0.00 94 1006.5
20260506194037 54 154 0.0 0.0 0.00 0.00 0.00 94 1006.3
20260506193937 54 297 0.0 0.0 0.00 0.00 0.00 94 1006.3
20260506193837 54 297 0.0 0.0 0.00 0.00 0.00 94 1006.6
20260506193737 54 297 0.0 0.0 0.00 0.00 0.00 94 1006.3
20260506193637 54 297 0.0 0.0 0.00 0.00 0.00 94 1006.5
20260506193537 54 260 0.0 0.0 0.00 0.00 0.00 94 1006.3
20260506193437 54 310 0.0 0.0 0.00 0.00 0.00 94 1006.3
20260506193337 54 310 0.0 0.0 0.00 0.00 0.00 94 1006.3
20260506193237 54 310 0.0 0.0 0.00 0.00 0.00 94 1006.3
20260506193137 54 312 0.9 0.0 0.00 0.00 0.00 94 1006.3
20260506193037 54 52 0.0 0.0 0.00 0.00 0.00 94 1006.2
20260506192937 54 94 0.0 0.0 0.00 0.00 0.00 94 1006.2
20260506192837 54 167 0.9 0.0 0.00 0.00 0.00 94 1006.1
20260506192736 54 221 0.9 0.0 0.00 0.00 0.00 94 1006.2
20260506192636 54 135 0.0 0.0 0.00 0.00 0.00 94 1006.2
20260506192536 54 44 0.0 0.0 0.00 0.00 0.00 94 1006.2
20260506192436 54 93 0.9 0.0 0.00 0.00 0.00 93 1006.1
20260506192336 54 48 0.0 0.0 0.00 0.00 0.00 93 1006.1
20260506192236 54 212 0.0 0.0 0.00 0.00 0.00 93 1006.1
20260506192136 54 66 0.0 0.0 0.00 0.00 0.00 93 1006.1
20260506192036 54 135 0.9 0.0 0.00 0.00 0.00 93 1006.1
20260506191936 54 139 0.9 0.0 0.00 0.00 0.00 93 1006.1
20260506191836 54 197 0.9 0.0 0.00 0.00 0.00 93 1006.1
20260506191736 54 180 0.0 0.0 0.00 0.00 0.00 93 1006.1
20260506191636 54 180 0.0 0.0 0.00 0.00 0.00 93 1006.1
20260506191536 54 129 0.0 0.0 0.00 0.00 0.00 93 1006.1
20260506191436 54 229 0.0 0.0 0.00 0.00 0.00 93 1006.0
20260506191336 54 224 0.0 0.0 0.00 0.00 0.00 93 1006.1
20260506191235 54 224 0.0 0.0 0.00 0.00 0.00 93 1006.0
20260506191135 54 62 0.0 0.0 0.00 0.00 0.00 93 1006.1
20260506191035 54 62 0.0 0.0 0.00 0.00 0.00 93 1006.0
20260506190935 54 62 0.0 0.0 0.00 0.00 0.00 93 1006.1
20260506190835 54 62 0.0 0.0 0.00 0.00 0.00 93 1006.1
20260506190735 54 62 0.0 0.0 0.00 0.00 0.00 93 1006.0
20260506190635 54 80 0.9 0.0 0.00 0.00 0.00 93 1006.1
20260506190535 54 118 0.0 0.0 0.00 0.00 0.00 93 1006.0
20260506190435 54 218 0.0 0.0 0.00 0.00 0.00 93 1006.0
20260506190335 54 218 0.0 0.0 0.00 0.00 0.00 93 1005.9
20260506190235 54 218 0.0 0.0 0.00 0.00 0.00 93 1005.9
20260506190135 54 218 0.9 0.0 0.00 0.00 0.00 93 1005.9
20260506190035 54 256 0.0 2.6 0.00 0.00 0.00 93 1005.9
20260506185935 55 286 1.7 2.6 0.00 0.00 0.00 93 1005.9
20260506185835 55 286 1.7 0.0 0.00 0.00 0.00 93 1005.9
20260506185735 55 326 0.0 0.0 0.00 0.00 0.00 93 1005.9
20260506185634 55 315 0.0 0.0 0.00 0.00 0.00 93 1005.9
20260506185534 55 310 0.9 0.0 0.00 0.00 0.00 93 1005.9
20260506185434 55 89 0.0 0.0 0.00 0.00 0.00 93 1005.9
20260506185334 55 119 0.0 0.0 0.00 0.00 0.00 92 1005.8
20260506185234 55 119 0.9 0.0 0.00 0.00 0.00 92 1005.8
20260506185134 55 168 0.0 0.0 0.00 0.00 0.00 92 1005.8
20260506185034 55 74 0.0 0.0 0.00 0.00 0.00 92 1005.7
20260506184934 55 103 0.9 0.0 0.00 0.00 0.00 92 1005.7
20260506184834 55 68 0.9 0.0 0.00 0.00 0.00 92 1005.8
20260506184734 55 77 0.0 0.0 0.00 0.00 0.00 92 1005.7
20260506184634 55 76 0.0 0.0 0.00 0.00 0.00 92 1005.7
20260506184534 55 76 0.0 0.0 0.00 0.00 0.00 91 1005.8
20260506184434 55 76 0.0 0.0 0.00 0.00 0.00 91 1005.6
20260506184334 55 76 0.0 0.0 0.00 0.00 0.00 91 1005.5
20260506184234 55 62 0.0 0.0 0.00 0.00 0.00 91 1005.5
20260506184134 55 62 0.0 0.0 0.00 0.00 0.00 91 1005.5
20260506184034 55 240 0.0 0.0 0.00 0.00 0.00 91 1005.4
20260506183933 55 240 0.0 0.0 0.00 0.00 0.00 91 1005.4
20260506183833 55 55 0.0 0.0 0.00 0.00 0.00 91 1005.4
20260506183733 55 252 0.0 0.0 0.00 0.00 0.00 90 1005.3
20260506183633 55 299 0.9 0.0 0.00 0.00 0.00 90 1005.4
20260506183533 55 242 0.9 0.0 0.00 0.00 0.00 90 1005.3
20260506183433 55 319 0.9 0.0 0.00 0.00 0.00 90 1005.2
20260506183333 55 315 0.0 0.0 0.00 0.00 0.00 90 1005.1
20260506183233 55 299 1.7 0.0 0.00 0.00 0.00 89 1005.1
20260506183133 55 269 1.7 0.0 0.00 0.00 0.00 90 1005.2
20260506183033 55 254 1.7 0.0 0.00 0.00 0.00 89 1005.2
20260506182933 55 232 0.0 0.0 0.00 0.00 0.00 89 1005.2
20260506182833 55 191 0.0 0.0 0.00 0.00 0.00 89 1005.0
20260506182733 55 175 0.0 0.0 0.00 0.00 0.00 89 1005.1
20260506182633 55 142 0.9 0.0 0.00 0.00 0.00 91 1005.1
20260506182533 55 44 0.0 0.0 0.00 0.00 0.00 91 1005.0
20260506182433 55 89 0.0 0.0 0.00 0.00 0.00 91 1005.1
20260506182333 55 89 0.0 0.0 0.00 0.00 0.00 91 1005.1
20260506182232 55 77 0.0 0.0 0.00 0.00 0.00 91 1005.1
20260506182132 55 50 0.0 0.0 0.00 0.00 0.00 91 1005.1
20260506182032 55 318 0.9 0.0 0.00 0.00 0.00 91 1005.1
20260506181932 55 269 0.0 0.0 0.00 0.00 0.00 91 1005.0
20260506181832 55 279 0.9 0.0 0.00 0.00 0.00 91 1005.2
20260506181732 55 309 0.0 0.0 0.00 0.00 0.00 91 1005.1
20260506181632 55 290 0.0 0.0 0.00 0.00 0.00 90 1005.1
20260506181532 55 290 0.0 0.0 0.00 0.00 0.00 90 1005.2
20260506181432 55 304 0.9 0.0 0.00 0.00 0.00 90 1005.2
20260506181332 55 79 0.9 0.0 0.00 0.00 0.00 90 1005.1
20260506181232 55 112 1.7 0.0 0.00 0.00 0.00 90 1005.1
20260506181132 55 154 0.0 0.0 0.00 0.00 0.00 90 1005.1
20260506181032 55 283 0.0 0.0 0.00 0.00 0.00 90 1005.0
20260506180932 55 185 0.0 0.0 0.00 0.00 0.00 90 1005.1
20260506180832 55 142 0.0 0.0 0.00 0.00 0.00 90 1005.0
20260506180732 55 175 0.0 0.0 0.00 0.00 0.00 90 1005.0
20260506180631 55 101 0.0 0.0 0.00 0.00 0.00 90 1004.9
20260506180531 55 315 0.0 0.0 0.00 0.00 0.00 89 1004.9
20260506180431 55 212 0.0 0.0 0.00 0.00 0.00 90 1004.9
20260506180331 55 212 0.0 0.0 0.00 0.00 0.00 90 1005.0
20260506180231 55 198 0.9 0.0 0.00 0.00 0.00 91 1004.9
20260506180131 55 315 0.0 0.0 0.00 0.00 0.00 90 1004.9
20260506180031 55 209 0.0 0.0 0.00 0.00 0.00 90 1004.8
20260506175931 55 209 0.9 0.0 0.00 0.00 0.00 91 1004.8
20260506175831 55 142 0.0 0.0 0.00 0.00 0.00 91 1004.9
20260506175731 55 147 0.9 0.0 0.00 0.00 0.00 91 1004.9
20260506175631 55 143 0.9 0.0 0.00 0.00 0.00 91 1004.9
20260506175531 55 124 0.0 0.0 0.00 0.00 0.00 91 1004.9
20260506175431 55 309 0.9 0.0 0.00 0.00 0.00 91 1004.9
20260506175331 55 297 0.9 0.0 0.00 0.00 0.00 91 1004.8
20260506175231 55 288 0.9 0.0 0.00 0.00 0.00 91 1005.0
20260506175131 55 311 0.0 0.0 0.00 0.00 0.00 91 1004.9
20260506175122 55 322 0.0 0.0 0.00 0.00 0.00 90 1005.0
20260506174930 55 307 0.0 0.0 0.00 0.00 0.00 90 1005.0
20260506174830 55 322 0.9 0.0 0.00 0.00 0.00 90 1004.9
20260506174730 55 309 0.9 0.0 0.00 0.00 0.00 90 1005.0
20260506174630 55 17 0.9 0.0 0.00 0.00 0.00 90 1005.0
20260506174530 55 43 0.9 0.0 0.00 0.00 0.00 90 1005.0
20260506174430 55 71 0.9 0.0 0.00 0.00 0.00 90 1005.0
20260506174330 55 286 0.0 0.0 0.00 0.00 0.00 91 1005.1
20260506174230 55 333 0.9 0.0 0.00 0.00 0.00 91 1005.1
20260506174130 55 307 0.9 0.0 0.00 0.00 0.00 91 1005.1
20260506174030 55 245 0.9 0.0 0.00 0.00 0.00 91 1005.2
20260506173930 55 230 0.0 0.0 0.00 0.00 0.00 91 1005.1
20260506173830 55 174 0.9 0.0 0.00 0.00 0.00 91 1005.0
20260506173730 55 233 0.9 0.0 0.00 0.00 0.00 91 1005.2
20260506173630 55 292 1.7 0.0 0.00 0.00 0.00 91 1005.0
20260506173530 55 300 1.7 0.0 0.00 0.00 0.00 91 1005.0
20260506173430 55 276 2.6 0.0 0.00 0.00 0.00 91 1005.0
20260506173330 55 294 3.5 0.0 0.00 0.00 0.00 91 1005.0
20260506173229 55 168 1.7 0.0 0.00 0.00 0.00 91 1005.0
20260506173129 55 272 0.9 0.0 0.00 0.00 0.00 91 1004.8
20260506173029 55 258 0.9 0.0 0.00 0.00 0.00 91 1004.8
20260506172929 55 309 0.9 0.0 0.00 0.00 0.00 91 1004.7
20260506172829 55 198 0.9 0.0 0.00 0.00 0.00 90 1004.8
20260506172729 55 166 0.9 0.0 0.00 0.00 0.00 90 1004.7
20260506172629 55 165 0.9 0.0 0.00 0.00 0.00 90 1004.7
20260506172529 55 70 0.9 0.0 0.00 0.00 0.00 90 1004.8
20260506172429 55 65 0.9 0.0 0.00 0.00 0.00 90 1004.8
20260506172329 55 52 0.9 0.0 0.00 0.00 0.00 90 1004.9
20260506172229 55 318 0.9 0.0 0.00 0.00 0.00 89 1005.0
20260506172129 55 346 0.9 0.0 0.00 0.00 0.00 89 1004.9
20260506172029 55 296 2.6 0.0 0.00 0.00 0.00 89 1005.0
20260506171929 55 304 1.7 0.0 0.00 0.00 0.00 89 1005.0
20260506171828 55 208 0.9 0.0 0.00 0.00 0.00 89 1004.9
20260506171728 55 309 0.9 0.0 0.00 0.00 0.00 89 1004.8
20260506171628 55 214 0.9 0.0 0.00 0.00 0.00 89 1004.7
20260506171528 55 194 0.0 0.0 0.00 0.00 0.00 89 1004.8
20260506171428 55 123 0.9 0.0 0.00 0.00 0.00 89 1004.7
20260506171328 55 173 0.9 0.0 0.00 0.00 0.00 90 1004.8
20260506171228 55 168 1.7 0.0 0.00 0.00 0.00 90 1004.7
20260506171128 55 191 1.7 0.0 0.00 0.00 0.00 90 1004.7
20260506171028 55 259 0.9 0.0 0.00 0.00 0.00 90 1004.7
20260506170928 55 173 0.9 0.0 0.00 0.00 0.00 89 1004.7
20260506170828 55 246 0.0 0.0 0.00 0.00 0.00 89 1004.7
20260506170728 56 310 0.0 0.0 0.00 0.00 0.00 89 1004.6
20260506170628 56 201 0.0 0.0 0.00 0.00 0.00 89 1004.7
20260506170528 56 228 1.7 0.0 0.00 0.00 0.00 90 1004.6
20260506170428 56 204 1.7 0.0 0.00 0.00 0.00 90 1004.7
20260506170328 56 229 1.7 0.0 0.00 0.00 0.00 90 1004.6
20260506170228 56 201 1.7 0.0 0.00 0.00 0.00 89 1004.6
20260506170127 56 224 0.9 0.0 0.00 0.00 0.00 89 1004.6
20260506170027 56 195 0.0 0.0 0.00 0.00 0.00 88 1004.6
20260506165927 56 25 0.0 0.0 0.00 0.00 0.00 88 1004.6
20260506165827 56 154 0.0 0.0 0.00 0.00 0.00 88 1004.6
20260506165727 56 157 0.0 0.0 0.00 0.00 0.00 88 1004.6
20260506165627 56 174 0.9 0.0 0.00 0.00 0.00 88 1004.6
20260506165527 56 224 0.0 0.0 0.00 0.00 0.00 88 1004.6
20260506165427 56 50 0.9 0.0 0.00 0.00 0.00 87 1004.6
20260506165327 56 322 0.9 0.0 0.00 0.00 0.00 86 1004.7
20260506165227 56 208 0.0 0.0 0.00 0.00 0.00 86 1004.7
20260506165127 56 195 0.9 0.0 0.00 0.00 0.00 86 1004.7
20260506165027 56 135 0.9 0.0 0.00 0.00 0.00 85 1004.7
20260506164927 56 208 0.9 0.0 0.00 0.00 0.00 84 1004.8
20260506164827 56 212 0.9 0.0 0.00 0.00 0.00 83 1004.8
20260506164727 57 94 0.9 0.0 0.00 0.00 0.00 82 1004.7
20260506164627 57 129 0.9 0.0 0.00 0.00 0.00 82 1004.9
20260506164526 57 103 1.7 0.0 0.00 0.00 0.00 81 1004.8
20260506164426 57 109 0.9 0.0 0.00 0.00 0.00 81 1004.8
20260506164326 57 99 1.7 0.0 0.00 0.00 0.00 81 1004.8
20260506164226 57 74 0.9 0.0 0.00 0.00 0.00 80 1004.9
20260506164126 57 53 0.9 0.0 0.00 0.00 0.00 79 1004.9
20260506164026 57 72 0.9 0.0 0.00 0.00 0.00 78 1004.9
20260506163926 57 48 0.9 0.0 0.00 0.00 0.00 78 1004.8
20260506163826 58 34 0.9 0.0 0.00 0.00 0.00 77 1004.9
20260506163726 58 101 1.7 0.0 0.00 0.00 0.00 76 1004.8
20260506163626 58 123 2.6 0.0 0.00 0.00 0.00 77 1004.8
20260506163526 58 119 0.9 0.0 0.00 0.00 0.00 78 1004.9
20260506163426 58 315 0.9 0.0 0.00 0.00 0.00 79 1004.9
20260506163326 58 189 0.0 0.0 0.00 0.00 0.00 79 1004.8
20260506163226 58 278 0.9 0.0 0.00 0.00 0.00 79 1004.8
20260506163126 58 129 0.9 0.0 0.00 0.00 0.00 79 1004.8
20260506163026 58 135 0.0 0.0 0.00 0.00 0.00 79 1004.8
20260506162926 58 197 0.0 0.0 0.00 0.00 0.00 78 1004.8
20260506162825 58 238 1.7 0.0 0.00 0.00 0.00 78 1004.8
20260506162725 58 62 0.9 0.0 0.00 0.00 0.00 80 1004.8
20260506162625 58 292 0.9 0.0 0.00 0.00 0.00 82 1004.8
20260506162525 58 297 0.9 0.0 0.00 0.00 0.00 83 1005.0
20260506162425 58 306 0.0 0.0 0.00 0.00 0.00 82 1004.9
20260506162325 58 71 0.9 0.0 0.00 0.00 0.00 82 1004.8
20260506162225 58 168 1.7 0.0 0.00 0.00 0.00 82 1004.8
20260506162125 58 88 0.9 0.0 0.00 0.00 0.00 81 1004.7
20260506162025 58 57 0.9 0.0 0.00 0.00 0.00 80 1004.8
20260506161925 58 11 0.0 0.0 0.00 0.00 0.00 81 1004.8
20260506161825 58 38 0.9 0.0 0.00 0.00 0.00 81 1004.8
20260506161725 58 37 0.9 0.0 0.00 0.00 0.00 79 1004.8
20260506161625 58 50 0.9 0.0 0.00 0.00 0.00 80 1004.8
20260506161525 58 62 0.0 0.0 0.00 0.00 0.00 80 1004.8
20260506161425 58 114 0.9 0.0 0.00 0.00 0.00 77 1004.8
20260506161325 58 193 0.0 0.0 0.00 0.00 0.00 76 1004.8
20260506161225 58 247 2.6 0.0 0.00 0.00 0.00 75 1004.7
20260506161124 58 342 1.7 0.0 0.00 0.00 0.00 74 1004.8
20260506161024 58 260 1.7 0.0 0.00 0.00 0.00 74 1004.7
20260506160924 58 256 4.3 0.0 0.00 0.00 0.00 74 1004.9
20260506160824 58 4 1.7 0.0 0.00 0.00 0.00 74 1004.8
20260506160724 58 263 2.6 0.0 0.00 0.00 0.00 74 1004.9
20260506160624 58 263 4.3 0.0 0.00 0.00 0.00 76 1004.8
20260506160524 58 230 0.9 0.0 0.00 0.00 0.00 76 1004.9
20260506160424 59 274 1.7 0.0 0.00 0.00 0.00 75 1004.9
20260506160324 59 286 0.9 0.0 0.00 0.00 0.00 74 1005.0
20260506160224 59 288 1.7 0.0 0.00 0.00 0.00 72 1004.9
20260506160124 59 258 6.1 0.0 0.00 0.00 0.00 73 1004.9
20260506160024 60 236 4.3 0.0 0.00 0.00 0.00 74 1004.9
20260506155924 60 232 2.6 0.0 0.00 0.00 0.00 72 1004.9
20260506155824 61 267 4.3 0.0 0.00 0.00 0.00 72 1004.8
20260506155724 61 260 7.8 0.0 0.00 0.00 0.00 71 1004.9
20260506155624 62 246 3.5 0.0 0.00 0.00 0.00 71 1004.8
20260506155523 62 259 5.2 0.0 0.00 0.00 0.00 71 1004.7
20260506155423 62 276 4.3 0.0 0.00 0.00 0.00 70 1004.8
20260506155323 62 283 4.3 0.0 0.00 0.00 0.00 69 1004.7
20260506155223 62 245 1.7 0.0 0.00 0.00 0.00 69 1004.7
20260506155123 62 262 1.7 0.0 0.00 0.00 0.00 68 1004.9
20260506155023 62 260 2.6 0.0 0.00 0.00 0.00 68 1004.7
20260506154923 62 59 1.7 0.0 0.00 0.00 0.00 67 1004.6
20260506154823 62 308 0.9 0.0 0.00 0.00 0.00 67 1004.7
20260506154723 62 292 1.7 0.0 0.00 0.00 0.00 68 1004.7
20260506154623 62 292 1.7 0.0 0.00 0.00 0.00 68 1004.7
20260506154523 62 289 1.7 0.0 0.00 0.00 0.00 68 1004.8
20260506154423 62 123 1.7 0.0 0.00 0.00 0.00 68 1004.6
20260506154323 62 99 1.7 0.0 0.00 0.00 0.00 68 1004.8
20260506154223 62 101 1.7 0.0 0.00 0.00 0.00 68 1004.6
20260506154123 62 115 1.7 0.0 0.00 0.00 0.00 68 1004.6
20260506154023 62 85 3.5 0.0 0.00 0.00 0.00 67 1004.6
20260506153922 62 100 3.5 0.0 0.00 0.00 0.00 67 1004.6
20260506153822 62 117 1.7 0.0 0.00 0.00 0.00 67 1004.7
20260506153722 62 39 4.3 0.0 0.00 0.00 0.00 67 1004.6
20260506153622 62 284 5.2 0.0 0.00 0.00 0.00 67 1004.6
20260506153523 62 289 2.6 0.0 0.00 0.00 0.00 66 1004.6
20260506153422 62 204 1.7 0.0 0.00 0.00 0.00 66 1004.7
20260506153322 63 248 2.6 0.0 0.00 0.00 0.00 65 1004.7
20260506153222 63 135 1.7 0.0 0.00 0.00 0.00 65 1004.6
20260506153122 63 74 2.6 0.0 0.00 0.00 0.00 65 1004.6
20260506153022 63 116 1.7 0.0 0.00 0.00 0.00 64 1004.6
20260506152922 63 119 5.2 0.0 0.00 0.00 0.00 64 1004.6
20260506152822 63 115 3.5 0.0 0.00 0.00 0.00 64 1004.6
20260506152722 63 264 2.6 0.0 0.00 0.00 0.00 64 1004.5
20260506152622 63 307 1.7 0.0 0.00 0.00 0.00 64 1004.6
20260506152522 63 305 1.7 0.0 0.00 0.00 0.00 64 1004.6
20260506152422 63 343 0.9 0.0 0.00 0.00 0.00 64 1004.7
20260506152322 63 74 0.9 0.0 0.00 0.00 0.00 63 1004.6
20260506152221 63 287 2.6 0.0 0.00 0.00 0.00 63 1004.7
20260506152121 63 275 2.6 0.0 0.00 0.00 0.00 63 1004.7
20260506152021 63 282 1.7 0.0 0.00 0.00 0.00 64 1004.7
20260506151921 63 313 1.7 0.0 0.00 0.00 0.00 63 1004.6
20260506151821 63 101 3.5 0.0 0.00 0.00 0.00 63 1004.6
20260506151721 63 273 1.7 0.0 0.00 0.00 0.00 63 1004.7
20260506151621 63 332 2.6 0.0 0.00 0.00 0.00 63 1004.7
20260506151521 63 173 1.7 0.0 0.00 0.00 0.00 63 1004.7
20260506151421 63 92 7.0 0.0 0.00 0.00 0.00 64 1004.5
20260506151321 63 329 3.5 0.0 0.00 0.00 0.00 64 1004.6
20260506151221 63 103 1.7 0.0 0.00 0.00 0.00 63 1004.5
20260506151121 63 151 3.5 0.0 0.00 0.00 0.00 63 1004.4
20260506151021 63 125 5.2 0.0 0.00 0.00 0.00 63 1004.4
20260506150921 63 42 1.7 0.0 0.00 0.00 0.00 63 1004.5
20260506150821 63 155 4.3 0.0 0.00 0.00 0.00 63 1004.4
20260506150721 63 174 3.5 0.0 0.00 0.00 0.00 63 1004.3
20260506150620 63 137 1.7 0.0 0.00 0.00 0.00 63 1004.4
20260506150520 63 117 3.5 0.0 0.00 0.00 0.00 63 1004.3
20260506150420 63 123 2.6 0.0 0.00 0.00 0.00 62 1004.4
20260506150320 63 110 5.2 0.0 0.00 0.00 0.00 62 1004.4
20260506150220 63 115 7.8 0.0 0.00 0.00 0.00 62 1004.4
20260506150120 63 136 5.2 0.0 0.00 0.00 0.00 62 1004.5
20260506150020 63 142 3.5 0.0 0.00 0.00 0.00 63 1004.4
20260506145920 63 160 3.5 0.0 0.00 0.00 0.00 63 1004.5
20260506145820 63 177 4.3 0.0 0.00 0.00 0.00 62 1004.5
20260506145720 63 248 3.5 0.0 0.00 0.00 0.00 62 1004.4
20260506145620 64 141 2.6 0.0 0.00 0.00 0.00 61 1004.5
20260506145520 64 109 7.0 0.0 0.00 0.00 0.00 62 1004.5
20260506145420 64 113 7.0 0.0 0.00 0.00 0.00 64 1004.5
20260506145320 64 286 0.9 0.0 0.00 0.00 0.00 64 1004.4
20260506145220 64 330 0.9 0.0 0.00 0.00 0.00 63 1004.5
20260506145120 63 346 0.9 0.0 0.00 0.00 0.00 64 1004.4
20260506145019 63 37 1.7 0.0 0.00 0.00 0.00 65 1004.4
20260506144919 63 288 1.7 0.0 0.00 0.00 0.00 64 1004.5
20260506144819 63 344 1.7 0.0 0.00 0.00 0.00 65 1004.5
20260506144719 63 265 3.5 0.0 0.00 0.00 0.00 65 1004.4
20260506144619 63 241 1.7 0.0 0.00 0.00 0.00 64 1004.4
20260506144519 63 156 4.3 0.0 0.00 0.00 0.00 65 1004.4
20260506144419 63 87 1.7 0.0 0.00 0.00 0.00 64 1004.5
20260506144319 63 184 0.9 0.0 0.00 0.00 0.00 64 1004.5
20260506144219 63 155 3.5 0.0 0.00 0.00 0.00 66 1004.5
20260506144119 63 139 2.6 0.0 0.00 0.00 0.00 65 1004.6
20260506144019 63 135 2.6 0.0 0.00 0.00 0.00 66 1004.5
20260506143919 63 142 1.7 0.0 0.00 0.00 0.00 67 1004.6
20260506143819 63 83 1.7 0.0 0.00 0.00 0.00 68 1004.5
20260506143719 63 46 1.7 0.0 0.00 0.00 0.00 66 1004.6
20260506143619 63 121 1.7 0.0 0.00 0.00 0.00 64 1004.6
20260506143519 63 64 0.9 0.0 0.00 0.00 0.00 63 1004.6
20260506143418 63 145 4.3 0.0 0.00 0.00 0.00 63 1004.6
20260506143318 63 105 3.5 0.0 0.00 0.00 0.00 63 1004.6
20260506143218 63 146 4.3 0.0 0.00 0.00 0.00 63 1004.7
20260506143118 63 57 4.3 0.0 0.00 0.00 0.00 64 1004.6
20260506143018 63 86 0.9 0.0 0.00 0.00 0.00 65 1004.6
20260506142918 63 286 1.7 0.0 0.00 0.00 0.00 66 1004.5
20260506142818 63 277 0.9 0.0 0.00 0.00 0.00 66 1004.6
20260506142718 63 164 1.7 0.0 0.00 0.00 0.00 66 1004.6
20260506142618 63 319 1.7 0.0 0.00 0.00 0.00 65 1004.6
20260506142518 63 190 1.7 0.0 0.00 0.00 0.00 65 1004.7
20260506142418 63 180 3.5 0.0 0.00 0.00 0.00 67 1004.5
20260506142318 63 169 0.9 0.0 0.00 0.00 0.00 66 1004.6
20260506142218 63 49 0.9 0.0 0.00 0.00 0.00 64 1004.6
20260506142118 63 125 2.6 0.0 0.00 0.00 0.00 64 1004.6
20260506142018 63 126 1.7 0.0 0.00 0.00 0.00 64 1004.5
20260506141918 63 57 3.5 0.0 0.00 0.00 0.00 64 1004.5
20260506141818 63 100 0.9 0.0 0.00 0.00 0.00 64 1004.6
20260506141717 63 161 3.5 0.0 0.00 0.00 0.00 65 1004.6
20260506141617 63 157 0.9 0.0 0.00 0.00 0.00 63 1004.5
20260506141517 63 253 6.1 0.0 0.00 0.00 0.00 62 1004.6
20260506141417 63 76 4.3 0.0 0.00 0.00 0.00 62 1004.5
20260506141317 63 139 6.1 0.0 0.00 0.00 0.00 61 1004.6
20260506141217 63 95 3.5 0.0 0.00 0.00 0.00 61 1004.5
20260506141117 63 136 7.8 0.0 0.00 0.00 0.00 60 1004.5
20260506141017 64 155 4.3 0.0 0.00 0.00 0.00 60 1004.4
20260506140917 64 128 8.7 0.0 0.00 0.00 0.00 60 1004.5
20260506140817 64 25 3.5 0.0 0.00 0.00 0.00 60 1004.4
20260506140717 64 115 7.0 0.0 0.00 0.00 0.00 60 1004.4
20260506140617 65 143 5.2 0.0 0.00 0.00 0.00 59 1004.4
20260506140517 65 110 6.1 0.0 0.00 0.00 0.00 59 1004.4
20260506140417 65 122 3.5 0.0 0.00 0.00 0.00 58 1004.4
20260506140317 65 178 2.6 0.0 0.00 0.00 0.00 57 1004.4
20260506140217 66 141 6.1 0.0 0.00 0.00 0.00 56 1004.4
20260506140116 66 115 3.5 0.0 0.00 0.00 0.00 55 1004.4
20260506140016 66 172 1.7 0.0 0.00 0.00 0.00 54 1004.4
20260506135916 66 343 2.6 0.0 0.00 0.00 0.00 52 1004.4
20260506135816 66 271 4.3 0.0 0.00 0.00 0.00 51 1004.4
20260506135716 66 267 2.6 0.0 0.00 0.00 0.00 51 1004.5
20260506135616 66 276 1.7 0.0 0.00 0.00 0.00 50 1004.4
20260506135516 66 354 2.6 0.0 0.00 0.00 0.00 51 1004.6
20260506135416 66 280 4.3 0.0 0.00 0.00 0.00 51 1004.5
20260506135316 66 129 5.2 0.0 0.00 0.00 0.00 52 1004.4
20260506135216 66 283 0.9 0.0 0.00 0.00 0.00 52 1004.4
20260506135116 66 49 2.6 0.0 0.00 0.00 0.00 51 1004.4
20260506135016 66 26 1.7 0.0 0.00 0.00 0.00 51 1004.4
20260506134916 66 10 0.9 0.0 0.00 0.00 0.00 51 1004.4
20260506134816 66 96 1.7 0.0 0.00 0.00 0.00 51 1004.5
20260506134716 66 44 1.7 0.0 0.00 0.00 0.00 50 1004.4
20260506134616 66 226 3.5 0.0 0.00 0.00 0.00 51 1004.4
20260506134516 67 231 4.3 0.0 0.00 0.00 0.00 50 1004.4
20260506134415 67 258 3.5 0.0 0.00 0.00 0.00 50 1004.4
20260506134315 67 267 5.2 0.0 0.00 0.00 0.00 50 1004.4
20260506134215 67 232 3.5 0.0 0.00 0.00 0.00 50 1004.5
20260506134115 67 189 2.6 0.0 0.00 0.00 0.00 50 1004.4
20260506134015 67 277 3.5 0.0 0.00 0.00 0.00 50 1004.5
20260506133917 67 246 1.7 0.0 0.00 0.00 0.00 51 1004.4
20260506133815 66 254 3.5 0.0 0.00 0.00 0.00 52 1004.4
20260506133715 66 9 0.9 0.0 0.00 0.00 0.00 51 1004.4
20260506133615 66 283 4.3 0.0 0.00 0.00 0.00 50 1004.3
20260506133515 66 263 3.5 0.0 0.00 0.00 0.00 51 1004.5
20260506133415 66 245 1.7 0.0 0.00 0.00 0.00 50 1004.4
20260506133315 66 282 3.5 0.0 0.00 0.00 0.00 50 1004.5
20260506133215 67 44 0.0 0.0 0.00 0.00 0.00 48 1004.5
20260506133115 67 279 1.7 0.0 0.00 0.00 0.00 49 1004.5
20260506133015 67 272 6.1 0.0 0.00 0.00 0.00 50 1004.5
20260506132914 67 4 1.7 0.0 0.00 0.00 0.00 50 1004.5
20260506132814 67 335 2.6 0.0 0.00 0.00 0.00 51 1004.5
20260506132714 67 82 2.6 0.0 0.00 0.00 0.00 52 1004.5
20260506132614 66 226 1.7 0.0 0.00 0.00 0.00 52 1004.5
20260506132514 66 283 1.7 0.0 0.00 0.00 0.00 51 1004.6
20260506132414 66 257 3.5 0.0 0.00 0.00 0.00 51 1004.6
20260506132314 66 252 4.3 0.0 0.00 0.00 0.00 51 1004.5
20260506132214 66 206 2.6 0.0 0.00 0.00 0.00 50 1004.5
20260506132114 66 279 3.5 0.0 0.00 0.00 0.00 50 1004.6
20260506132014 66 268 7.8 0.0 0.00 0.00 0.00 51 1004.5
20260506131914 66 241 3.5 0.0 0.00 0.00 0.00 52 1004.6
20260506131814 65 295 1.7 0.0 0.00 0.00 0.00 53 1004.5
20260506131714 65 147 3.5 0.0 0.00 0.00 0.00 52 1004.5
20260506131614 65 266 8.7 0.0 0.00 0.00 0.00 52 1004.5
20260506131514 66 256 4.3 0.0 0.00 0.00 0.00 51 1004.6
20260506131414 66 258 6.1 0.0 0.00 0.00 0.00 52 1004.5
20260506131314 66 232 1.7 0.0 0.00 0.00 0.00 52 1004.6
20260506131213 66 322 0.9 0.0 0.00 0.00 0.00 52 1004.6